Time,TemperatureF,DewpointF,PressureIn,WindDirection,WindDirectionDegrees,WindSpeedMPH,WindSpeedGustMPH,Humidity,HourlyPrecipIn,Conditions,Clouds,dailyrainin,SoftwareType,DateUTC
2013-03-03 00:02:00,28.5,20.9,30.10,South,190,2.3,2.3,73,0.00,CLR,,0.00,WeatherDisplay:10.37,2013-03-03 06:02:00,
2013-03-03 00:03:00,28.5,20.9,30.09,SSW,192,5.0,5.0,73,0.00,CLR,,0.00,WeatherDisplay:10.37,2013-03-03 06:03:00,
2013-03-03 00:07:00,28.5,20.9,30.10,South,173,3.5,3.5,73,0.00,CLR,,0.00,WeatherDisplay:10.37,2013-03-03 06:07:00,
2013-03-03 00:08:00,28.5,20.9,30.10,South,173,1.2,1.2,73,0.00,CLR,,0.00,WeatherDisplay:10.37,2013-03-03 06:08:00,
2013-03-03 00:12:00,28.5,20.9,30.09,South,186,4.6,4.6,73,0.00,CLR,,0.00,WeatherDisplay:10.37,2013-03-03 06:12:00,
2013-03-03 00:13:00,28.5,20.9,30.10,South,175,5.8,5.8,73,0.00,CLR,,0.00,WeatherDisplay:10.37,2013-03-03 06:13:00,
2013-03-03 00:17:00,28.5,20.9,30.09,SSE,167,3.5,3.5,73,0.00,CLR,,0.00,WeatherDisplay:10.37,2013-03-03 06:17:00,
2013-03-03 00:18:00,28.5,20.9,30.09,SSE,154,4.6,4.6,73,0.00,CLR,,0.00,WeatherDisplay:10.37,2013-03-03 06:18:00,
2013-03-03 00:19:00,28.5,20.9,30.09,South,175,3.5,3.5,73,0.00,CLR,,0.00,WeatherDisplay:10.37,2013-03-03 06:19:00,
2013-03-03 00:22:00,28.5,21.3,30.09,South,187,0.0,0.1,74,0.00,CLR,,0.00,WeatherDisplay:10.37,2013-03-03 06:22:00,
2013-03-03 00:23:00,28.5,21.3,30.09,SSE,153,2.3,2.3,74,0.00,CLR,,0.00,WeatherDisplay:10.37,2013-03-03 06:23:00,
2013-03-03 00:24:00,28.5,20.9,30.09,SSE,147,3.5,3.5,73,0.00,CLR,,0.00,WeatherDisplay:10.37,2013-03-03 06:24:00,
2013-03-03 00:27:00,28.5,21.3,30.09,SSE,150,1.2,1.2,74,0.00,CLR,,0.00,WeatherDisplay:10.37,2013-03-03 06:27:00,
2013-03-03 00:28:00,28.6,21.4,30.09,SSE,150,2.3,2.3,74,0.00,CLR,,0.00,WeatherDisplay:10.37,2013-03-03 06:28:00,
2013-03-03 00:29:00,28.6,21.4,30.09,SSE,150,1.2,0.0,74,0.00,CLR,,0.00,WeatherDisplay:10.37,2013-03-03 06:29:00,
2013-03-03 00:33:00,28.6,21.0,30.09,SSE,150,0.0,0.0,73,0.00,CLR,,0.00,WeatherDisplay:10.37,2013-03-03 06:33:00,
2013-03-03 00:34:00,28.7,21.1,30.09,SSE,150,0.0,0.0,73,0.00,CLR,,0.00,WeatherDisplay:10.37,2013-03-03 06:34:00,
2013-03-03 00:38:00,28.6,21.7,30.09,SSE,150,0.0,0.0,75,0.00,CLR,,0.00,WeatherDisplay:10.37,2013-03-03 06:38:00,
2013-03-03 00:39:00,28.6,21.0,30.09,SSE,150,1.2,1.2,73,0.00,CLR,,0.00,WeatherDisplay:10.37,2013-03-03 06:39:00,
2013-03-03 00:43:00,28.5,21.3,30.09,SSE,163,1.2,0.0,74,0.00,CLR,,0.00,WeatherDisplay:10.37,2013-03-03 06:43:00,
2013-03-03 00:44:00,28.5,21.3,30.09,SSE,163,0.0,0.0,74,0.00,CLR,,0.00,WeatherDisplay:10.37,2013-03-03 06:44:00,
2013-03-03 00:48:00,28.5,21.3,30.09,South,177,2.3,2.3,74,0.00,CLR,,0.00,WeatherDisplay:10.37,2013-03-03 06:48:00,
2013-03-03 00:49:00,28.5,21.3,30.09,South,172,3.5,3.5,74,0.00,CLR,,0.00,WeatherDisplay:10.37,2013-03-03 06:49:00,
2013-03-03 00:53:00,28.5,21.9,30.09,South,171,0.0,0.0,76,0.00,CLR,,0.00,WeatherDisplay:10.37,2013-03-03 06:53:00,
2013-03-03 00:54:00,28.5,21.9,30.09,South,171,0.0,0.1,76,0.00,CLR,,0.00,WeatherDisplay:10.37,2013-03-03 06:54:00,
2013-03-03 00:58:00,28.5,21.3,30.09,SSE,157,2.3,2.3,74,0.00,CLR,,0.00,WeatherDisplay:10.37,2013-03-03 06:58:00,
2013-03-03 00:59:00,28.5,21.3,30.08,SE,136,1.2,1.2,74,0.00,CLR,,0.00,WeatherDisplay:10.37,2013-03-03 06:59:00,
2013-03-03 01:03:00,28.4,21.2,30.08,SSE,165,1.2,1.2,74,0.00,CLR,,0.00,WeatherDisplay:10.37,2013-03-03 07:03:00,
2013-03-03 01:04:00,28.4,21.5,30.08,SSE,165,1.2,1.2,75,0.00,CLR,,0.00,WeatherDisplay:10.37,2013-03-03 07:04:00,
2013-03-03 01:05:00,28.5,21.3,30.08,SSE,151,2.3,2.3,74,0.00,CLR,,0.00,WeatherDisplay:10.37,2013-03-03 07:05:00,
2013-03-03 01:08:00,28.5,21.6,30.08,SSE,157,1.2,1.2,75,0.00,CLR,,0.00,WeatherDisplay:10.37,2013-03-03 07:08:00,
2013-03-03 01:09:00,28.4,21.2,30.08,South,180,3.5,3.5,74,0.00,CLR,,0.00,WeatherDisplay:10.37,2013-03-03 07:09:00,
2013-03-03 01:10:00,28.4,21.2,30.08,South,171,3.5,3.5,74,0.00,CLR,,0.00,WeatherDisplay:10.37,2013-03-03 07:10:00,
2013-03-03 01:13:00,28.5,21.3,30.08,SE,131,1.2,1.2,74,0.00,CLR,,0.00,WeatherDisplay:10.37,2013-03-03 07:13:00,
2013-03-03 01:14:00,28.5,21.3,30.08,SE,131,1.2,0.0,74,0.00,CLR,,0.00,WeatherDisplay:10.37,2013-03-03 07:14:00,
2013-03-03 01:15:00,28.5,21.3,30.08,SE,131,0.0,0.0,74,0.00,CLR,,0.00,WeatherDisplay:10.37,2013-03-03 07:15:00,
2013-03-03 01:18:00,28.5,21.3,30.08,SSE,148,2.3,2.3,74,0.00,CLR,,0.00,WeatherDisplay:10.37,2013-03-03 07:18:00,
2013-03-03 01:19:00,28.5,20.9,30.08,SE,138,3.5,3.5,73,0.00,CLR,,0.00,WeatherDisplay:10.37,2013-03-03 07:19:00,
2013-03-03 01:20:00,28.5,20.9,30.08,SSE,149,3.5,3.5,73,0.00,CLR,,0.00,WeatherDisplay:10.37,2013-03-03 07:20:00,
2013-03-03 01:24:00,28.5,20.9,30.08,SSE,153,4.0,4.0,73,0.00,CLR,,0.00,WeatherDisplay:10.37,2013-03-03 07:24:00,
2013-03-03 01:25:00,28.4,20.8,30.08,SSE,155,4.6,4.6,73,0.00,CLR,,0.00,WeatherDisplay:10.37,2013-03-03 07:25:00,
2013-03-03 01:29:00,28.4,21.2,30.08,SSE,165,0.0,0.0,74,0.00,CLR,,0.00,WeatherDisplay:10.37,2013-03-03 07:29:00,
2013-03-03 01:30:00,28.3,20.7,30.08,ESE,123,1.2,1.2,73,0.00,CLR,,0.00,WeatherDisplay:10.37,2013-03-03 07:30:00,
2013-03-03 01:34:00,28.2,20.7,30.08,SSW,212,3.5,3.5,73,0.00,CLR,,0.00,WeatherDisplay:10.37,2013-03-03 07:34:00,
2013-03-03 01:35:00,28.2,20.7,30.08,South,173,3.5,3.5,73,0.00,CLR,,0.00,WeatherDisplay:10.37,2013-03-03 07:35:00,
2013-03-03 01:36:00,28.1,20.6,30.08,South,173,2.3,0.0,73,0.00,CLR,,0.00,WeatherDisplay:10.37,2013-03-03 07:36:00,
2013-03-03 01:39:00,28.0,20.5,30.08,SSE,164,2.3,2.3,73,0.00,CLR,,0.00,WeatherDisplay:10.37,2013-03-03 07:39:00,
2013-03-03 01:40:00,28.0,20.5,30.08,SSE,164,1.2,1.2,73,0.00,CLR,,0.00,WeatherDisplay:10.37,2013-03-03 07:40:00,
2013-03-03 01:41:00,28.0,20.8,30.08,SSE,151,2.0,2.0,74,0.00,CLR,,0.00,WeatherDisplay:10.37,2013-03-03 07:41:00,
2013-03-03 01:45:00,27.9,21.0,30.07,SSE,152,0.0,0.0,75,0.00,CLR,,0.00,WeatherDisplay:10.37,2013-03-03 07:45:00,
2013-03-03 01:46:00,27.9,21.0,30.07,SSE,162,0.0,0.1,75,0.00,CLR,,0.00,WeatherDisplay:10.37,2013-03-03 07:46:00,
2013-03-03 01:50:00,27.8,20.9,30.07,South,176,1.2,1.2,75,0.00,CLR,,0.00,WeatherDisplay:10.37,2013-03-03 07:50:00,
2013-03-03 01:51:00,27.8,20.9,30.07,SSE,161,1.2,1.2,75,0.00,CLR,,0.00,WeatherDisplay:10.37,2013-03-03 07:51:00,
2013-03-03 01:52:00,27.8,20.6,30.07,South,178,2.3,2.3,74,0.00,CLR,,0.00,WeatherDisplay:10.37,2013-03-03 07:52:00,
2013-03-03 01:55:00,27.7,20.8,30.07,SSE,160,1.2,1.2,75,0.00,CLR,,0.00,WeatherDisplay:10.37,2013-03-03 07:55:00,
2013-03-03 01:56:00,27.6,20.7,30.06,SSE,160,1.2,1.2,75,0.00,CLR,,0.00,WeatherDisplay:10.37,2013-03-03 07:56:00,
2013-03-03 01:57:00,27.6,21.0,30.06,SSE,158,1.2,1.2,76,0.00,CLR,,0.00,WeatherDisplay:10.37,2013-03-03 07:57:00,
2013-03-03 02:00:00,27.5,20.6,30.06,SSE,159,2.3,2.3,75,0.00,CLR,,0.00,WeatherDisplay:10.37,2013-03-03 08:00:00,
2013-03-03 02:01:00,27.5,20.6,30.06,SSE,151,2.3,2.3,75,0.00,CLR,,0.00,WeatherDisplay:10.37,2013-03-03 08:01:00,
2013-03-03 02:02:00,27.5,20.6,30.06,SSE,151,2.3,2.3,75,0.00,CLR,,0.00,WeatherDisplay:10.37,2013-03-03 08:02:00,
2013-03-03 02:05:00,27.5,20.6,30.06,SSE,164,3.5,3.5,75,0.00,CLR,,0.00,WeatherDisplay:10.37,2013-03-03 08:05:00,
2013-03-03 02:06:00,27.5,20.6,30.06,SSE,164,2.3,0.0,75,0.00,CLR,,0.00,WeatherDisplay:10.37,2013-03-03 08:06:00,
2013-03-03 02:07:00,27.5,20.6,30.06,SSE,152,1.2,1.2,75,0.00,CLR,,0.00,WeatherDisplay:10.37,2013-03-03 08:07:00,
2013-03-03 02:10:00,27.4,20.2,30.06,South,184,3.5,3.5,74,0.00,CLR,,0.00,WeatherDisplay:10.37,2013-03-03 08:10:00,
2013-03-03 02:11:00,27.4,20.2,30.06,South,179,2.3,2.3,74,0.00,CLR,,0.00,WeatherDisplay:10.37,2013-03-03 08:11:00,
2013-03-03 02:12:00,27.4,20.5,30.06,SSE,158,1.2,1.2,75,0.00,CLR,,0.00,WeatherDisplay:10.37,2013-03-03 08:12:00,
2013-03-03 02:15:00,27.3,20.4,30.06,SSE,160,2.3,2.3,75,0.00,CLR,,0.00,WeatherDisplay:10.37,2013-03-03 08:15:00,
2013-03-03 02:16:00,27.3,20.4,30.06,SSE,161,2.3,2.3,75,0.00,CLR,,0.00,WeatherDisplay:10.37,2013-03-03 08:16:00,
2013-03-03 02:17:00,27.2,20.3,30.06,SE,142,2.3,2.3,75,0.00,CLR,,0.00,WeatherDisplay:10.37,2013-03-03 08:17:00,
2013-03-03 02:21:00,27.2,20.0,30.06,SE,144,6.9,6.9,74,0.00,CLR,,0.00,WeatherDisplay:10.37,2013-03-03 08:21:00,
2013-03-03 02:22:00,27.2,20.0,30.06,SSE,148,3.5,3.5,74,0.00,CLR,,0.00,WeatherDisplay:10.37,2013-03-03 08:22:00,
2013-03-03 02:26:00,27.2,20.0,30.06,SE,146,3.5,3.5,74,0.00,CLR,,0.00,WeatherDisplay:10.37,2013-03-03 08:26:00,
2013-03-03 02:27:00,27.2,20.0,30.06,SSE,159,3.5,3.5,74,0.00,CLR,,0.00,WeatherDisplay:10.37,2013-03-03 08:27:00,
2013-03-03 02:31:00,27.1,20.2,30.06,SE,134,3.5,3.5,75,0.00,CLR,,0.00,WeatherDisplay:10.37,2013-03-03 08:31:00,
2013-03-03 02:32:00,27.0,20.1,30.06,SSE,164,2.3,2.3,75,0.00,CLR,,0.00,WeatherDisplay:10.37,2013-03-03 08:32:00,
2013-03-03 02:33:00,27.0,20.1,30.06,SSE,158,2.3,2.3,75,0.00,CLR,,0.00,WeatherDisplay:10.37,2013-03-03 08:33:00,
2013-03-03 02:36:00,26.9,20.0,30.06,SSE,162,2.3,2.3,75,0.00,CLR,,0.00,WeatherDisplay:10.37,2013-03-03 08:36:00,
2013-03-03 02:37:00,26.9,20.0,30.06,South,174,2.3,2.3,75,0.00,CLR,,0.00,WeatherDisplay:10.37,2013-03-03 08:37:00,
2013-03-03 02:38:00,26.8,19.9,30.06,South,169,2.3,2.3,75,0.00,CLR,,0.00,WeatherDisplay:10.37,2013-03-03 08:38:00,
2013-03-03 02:41:00,26.8,19.9,30.06,SSE,148,2.3,2.3,75,0.00,CLR,,0.00,WeatherDisplay:10.37,2013-03-03 08:41:00,
2013-03-03 02:42:00,26.8,19.9,30.06,SSW,213,3.5,3.5,75,0.00,CLR,,0.00,WeatherDisplay:10.37,2013-03-03 08:42:00,
2013-03-03 02:43:00,26.8,19.9,30.06,SE,134,3.5,3.5,75,0.00,CLR,,0.00,WeatherDisplay:10.37,2013-03-03 08:43:00,
2013-03-03 02:46:00,26.7,19.8,30.05,SSE,163,2.3,2.3,75,0.00,CLR,,0.00,WeatherDisplay:10.37,2013-03-03 08:46:00,
2013-03-03 02:47:00,26.7,19.8,30.05,SSE,157,3.5,3.5,75,0.00,CLR,,0.00,WeatherDisplay:10.37,2013-03-03 08:47:00,
2013-03-03 02:48:00,26.7,19.8,30.05,South,169,3.0,3.0,75,0.00,CLR,,0.00,WeatherDisplay:10.37,2013-03-03 08:48:00,
2013-03-03 02:51:00,26.7,19.8,30.05,SSE,155,1.2,1.2,75,0.00,CLR,,0.00,WeatherDisplay:10.37,2013-03-03 08:51:00,
2013-03-03 02:52:00,26.7,19.8,30.05,SSE,161,1.2,1.2,75,0.00,CLR,,0.00,WeatherDisplay:10.37,2013-03-03 08:52:00,
2013-03-03 02:53:00,26.7,20.1,30.05,SSE,148,2.3,2.3,76,0.00,CLR,,0.00,WeatherDisplay:10.37,2013-03-03 08:53:00,
2013-03-03 02:57:00,26.5,20.0,30.05,SSE,151,2.3,2.3,76,0.00,CLR,,0.00,WeatherDisplay:10.37,2013-03-03 08:57:00,
2013-03-03 02:58:00,26.5,20.3,30.04,South,176,2.3,2.3,77,0.00,CLR,,0.00,WeatherDisplay:10.37,2013-03-03 08:58:00,
2013-03-03 02:59:00,26.4,19.9,30.04,SSE,164,2.3,2.3,76,0.00,CLR,,0.00,WeatherDisplay:10.37,2013-03-03 08:59:00,
2013-03-03 03:02:00,26.4,19.9,30.04,SE,135,3.5,3.5,76,0.00,CLR,,0.00,WeatherDisplay:10.37,2013-03-03 09:02:00,
2013-03-03 03:03:00,26.4,19.9,30.04,SSE,152,3.5,3.5,76,0.00,CLR,,0.00,WeatherDisplay:10.37,2013-03-03 09:03:00,
2013-03-03 03:04:00,26.4,19.9,30.04,SSE,163,1.2,1.2,76,0.00,CLR,,0.00,WeatherDisplay:10.37,2013-03-03 09:04:00,
2013-03-03 03:07:00,26.3,19.8,30.04,SSE,163,3.0,3.0,76,0.00,CLR,,0.00,WeatherDisplay:10.37,2013-03-03 09:07:00,
2013-03-03 03:08:00,26.3,19.8,30.04,SE,145,3.5,3.5,76,0.00,CLR,,0.00,WeatherDisplay:10.37,2013-03-03 09:08:00,
2013-03-03 03:09:00,26.3,20.1,30.04,SSE,147,2.3,2.3,77,0.00,CLR,,0.00,WeatherDisplay:10.37,2013-03-03 09:09:00,
2013-03-03 03:12:00,26.3,20.1,30.03,SSE,162,2.3,2.3,77,0.00,CLR,,0.00,WeatherDisplay:10.37,2013-03-03 09:12:00,
2013-03-03 03:13:00,26.3,20.1,30.03,SSE,163,3.5,3.5,77,0.00,CLR,,0.00,WeatherDisplay:10.37,2013-03-03 09:13:00,
2013-03-03 03:14:00,26.3,20.1,30.03,SSE,155,3.5,3.5,77,0.00,CLR,,0.00,WeatherDisplay:10.37,2013-03-03 09:14:00,
2013-03-03 03:17:00,26.2,20.0,30.03,SE,136,3.5,3.5,77,0.00,CLR,,0.00,WeatherDisplay:10.37,2013-03-03 09:17:00,
2013-03-03 03:18:00,26.2,20.0,30.03,SE,142,3.5,3.5,77,0.00,CLR,,0.00,WeatherDisplay:10.37,2013-03-03 09:18:00,
2013-03-03 03:19:00,26.2,20.0,30.03,South,177,3.5,3.5,77,0.00,CLR,,0.00,WeatherDisplay:10.37,2013-03-03 09:19:00,
2013-03-03 03:22:00,26.1,19.9,30.03,SE,138,3.5,3.5,77,0.00,CLR,,0.00,WeatherDisplay:10.37,2013-03-03 09:22:00,
2013-03-03 03:23:00,26.1,19.9,30.03,SSE,153,3.5,3.5,77,0.00,CLR,,0.00,WeatherDisplay:10.37,2013-03-03 09:23:00,
2013-03-03 03:24:00,26.2,20.0,30.03,South,175,3.5,3.5,77,0.00,CLR,,0.00,WeatherDisplay:10.37,2013-03-03 09:24:00,
2013-03-03 03:27:00,26.2,20.0,30.03,SSE,165,3.5,3.5,77,0.00,CLR,,0.00,WeatherDisplay:10.37,2013-03-03 09:27:00,
2013-03-03 03:28:00,26.2,20.0,30.03,SSE,162,4.6,4.6,77,0.00,CLR,,0.00,WeatherDisplay:10.37,2013-03-03 09:28:00,
2013-03-03 03:29:00,26.2,20.0,30.03,SSE,150,4.6,4.6,77,0.00,CLR,,0.00,WeatherDisplay:10.37,2013-03-03 09:29:00,
2013-03-03 03:33:00,26.1,19.9,30.03,SSE,160,1.2,1.2,77,0.00,CLR,,0.00,WeatherDisplay:10.37,2013-03-03 09:33:00,
2013-03-03 03:34:00,26.1,19.9,30.03,SE,144,1.2,1.2,77,0.00,CLR,,0.00,WeatherDisplay:10.37,2013-03-03 09:34:00,
2013-03-03 03:38:00,25.9,20.0,30.02,SSE,161,1.2,1.2,78,0.00,CLR,,0.00,WeatherDisplay:10.37,2013-03-03 09:38:00,
2013-03-03 03:39:00,25.8,19.9,30.02,SSE,161,0.0,0.0,78,0.00,CLR,,0.00,WeatherDisplay:10.37,2013-03-03 09:39:00,
2013-03-03 03:40:00,25.8,19.9,30.02,SSE,161,1.2,0.0,78,0.00,CLR,,0.00,WeatherDisplay:10.37,2013-03-03 09:40:00,
2013-03-03 03:43:00,25.9,20.0,30.02,South,170,1.2,0.0,78,0.00,CLR,,0.00,WeatherDisplay:10.37,2013-03-03 09:43:00,
2013-03-03 03:44:00,25.9,20.0,30.02,SSE,163,1.2,1.2,78,0.00,CLR,,0.00,WeatherDisplay:10.37,2013-03-03 09:44:00,
2013-03-03 03:45:00,25.9,20.0,30.02,SSE,165,2.3,2.3,78,0.00,CLR,,0.00,WeatherDisplay:10.37,2013-03-03 09:45:00,
2013-03-03 03:48:00,25.9,20.0,30.02,South,175,1.2,1.2,78,0.00,CLR,,0.00,WeatherDisplay:10.37,2013-03-03 09:48:00,
2013-03-03 03:49:00,25.9,20.0,30.02,SE,140,3.0,3.0,78,0.00,CLR,,0.00,WeatherDisplay:10.37,2013-03-03 09:49:00,
2013-03-03 03:50:00,25.9,20.0,30.02,SE,132,3.5,3.5,78,0.00,CLR,,0.00,WeatherDisplay:10.37,2013-03-03 09:50:00,
2013-03-03 03:54:00,25.9,20.0,30.02,SSE,157,1.2,1.2,78,0.00,CLR,,0.00,WeatherDisplay:10.37,2013-03-03 09:54:00,
2013-03-03 03:55:00,25.9,20.0,30.02,South,180,1.2,1.2,78,0.00,CLR,,0.00,WeatherDisplay:10.37,2013-03-03 09:55:00,
2013-03-03 03:59:00,25.8,19.9,30.02,SSE,151,3.5,3.5,78,0.00,CLR,,0.00,WeatherDisplay:10.37,2013-03-03 09:59:00,
2013-03-03 04:00:00,25.8,19.9,30.02,SSE,150,2.3,2.3,78,0.00,CLR,,0.00,WeatherDisplay:10.37,2013-03-03 10:00:00,
2013-03-03 04:04:00,25.8,19.9,30.02,South,190,3.5,3.5,78,0.00,CLR,,0.00,WeatherDisplay:10.37,2013-03-03 10:04:00,
2013-03-03 04:05:00,25.8,19.9,30.02,SE,137,1.2,0.0,78,0.00,CLR,,0.00,WeatherDisplay:10.37,2013-03-03 10:05:00,
2013-03-03 04:06:00,25.8,19.9,30.01,SE,137,0.0,0.0,78,0.00,CLR,,0.00,WeatherDisplay:10.37,2013-03-03 10:06:00,
2013-03-03 04:09:00,25.6,19.7,30.01,SE,146,2.3,2.3,78,0.00,CLR,,0.00,WeatherDisplay:10.37,2013-03-03 10:09:00,
2013-03-03 04:10:00,25.6,19.7,30.01,SSE,168,3.5,3.5,78,0.00,CLR,,0.00,WeatherDisplay:10.37,2013-03-03 10:10:00,
2013-03-03 04:11:00,25.6,19.7,30.01,SE,137,4.0,4.0,78,0.00,CLR,,0.00,WeatherDisplay:10.37,2013-03-03 10:11:00,
2013-03-03 04:14:00,25.7,19.8,30.01,SSE,156,3.5,3.5,78,0.00,CLR,,0.00,WeatherDisplay:10.37,2013-03-03 10:14:00,
2013-03-03 04:15:00,25.7,19.8,30.01,East,86,4.6,4.6,78,0.00,CLR,,0.00,WeatherDisplay:10.37,2013-03-03 10:15:00,
2013-03-03 04:16:00,25.8,19.9,30.01,East,86,4.6,4.6,78,0.00,CLR,,0.00,WeatherDisplay:10.37,2013-03-03 10:16:00,
2013-03-03 04:19:00,25.7,19.8,30.01,SE,129,3.5,3.5,78,0.00,CLR,,0.00,WeatherDisplay:10.37,2013-03-03 10:19:00,
2013-03-03 04:21:00,25.7,19.8,30.01,SE,129,1.2,1.2,78,0.00,CLR,,0.00,WeatherDisplay:10.37,2013-03-03 10:21:00,
2013-03-03 04:25:00,25.6,19.7,30.01,South,174,3.5,3.5,78,0.00,CLR,,0.00,WeatherDisplay:10.37,2013-03-03 10:25:00,
2013-03-03 04:26:00,25.6,19.7,30.01,South,169,3.5,3.5,78,0.00,CLR,,0.00,WeatherDisplay:10.37,2013-03-03 10:26:00,
2013-03-03 04:27:00,25.7,19.8,30.01,South,170,1.2,0.0,78,0.00,CLR,,0.00,WeatherDisplay:10.37,2013-03-03 10:27:00,
2013-03-03 04:31:00,25.6,19.7,30.02,SSE,161,5.0,5.0,78,0.00,CLR,,0.00,WeatherDisplay:10.37,2013-03-03 10:31:00,
2013-03-03 04:32:00,25.7,19.8,30.02,SSW,202,4.6,4.6,78,0.00,CLR,,0.00,WeatherDisplay:10.37,2013-03-03 10:32:00,
2013-03-03 04:36:00,25.7,19.8,30.02,SSE,162,1.2,1.2,78,0.00,CLR,,0.00,WeatherDisplay:10.37,2013-03-03 10:36:00,
2013-03-03 04:37:00,25.7,19.8,30.02,South,173,1.2,1.2,78,0.00,CLR,,0.00,WeatherDisplay:10.37,2013-03-03 10:37:00,
2013-03-03 04:41:00,25.6,19.7,30.02,SSE,153,5.8,5.8,78,0.00,CLR,,0.00,WeatherDisplay:10.37,2013-03-03 10:41:00,
2013-03-03 04:42:00,25.6,19.7,30.02,SSE,163,6.9,6.9,78,0.00,CLR,,0.00,WeatherDisplay:10.37,2013-03-03 10:42:00,
2013-03-03 04:46:00,25.6,19.7,30.01,SE,138,2.3,2.3,78,0.00,CLR,,0.00,WeatherDisplay:10.37,2013-03-03 10:46:00,
2013-03-03 04:47:00,25.6,19.7,30.01,South,186,1.2,1.2,78,0.00,CLR,,0.00,WeatherDisplay:10.37,2013-03-03 10:47:00,
2013-03-03 04:51:00,25.5,19.6,30.01,South,188,3.5,3.5,78,0.00,CLR,,0.00,WeatherDisplay:10.37,2013-03-03 10:51:00,
2013-03-03 04:52:00,25.5,19.6,30.01,SSE,167,3.5,3.5,78,0.00,CLR,,0.00,WeatherDisplay:10.37,2013-03-03 10:52:00,
2013-03-03 04:56:00,25.5,19.6,30.01,SSE,161,3.5,3.5,78,0.00,CLR,,0.00,WeatherDisplay:10.37,2013-03-03 10:56:00,
2013-03-03 04:57:00,25.5,19.6,30.01,SSE,161,3.5,3.5,78,0.00,CLR,,0.00,WeatherDisplay:10.37,2013-03-03 10:57:00,
2013-03-03 05:02:00,25.3,19.7,30.01,South,182,3.5,3.5,79,0.00,CLR,,0.00,WeatherDisplay:10.37,2013-03-03 11:02:00,
2013-03-03 05:03:00,25.3,19.7,30.01,SSE,155,3.5,3.5,79,0.00,CLR,,0.00,WeatherDisplay:10.37,2013-03-03 11:03:00,
2013-03-03 05:07:00,25.3,19.7,30.00,SSE,161,3.5,3.5,79,0.00,CLR,,0.00,WeatherDisplay:10.37,2013-03-03 11:07:00,
2013-03-03 05:08:00,25.3,19.7,30.00,SSE,153,3.5,3.5,79,0.00,CLR,,0.00,WeatherDisplay:10.37,2013-03-03 11:08:00,
2013-03-03 05:12:00,25.3,19.7,30.01,SSE,148,3.5,3.5,79,0.00,CLR,,0.00,WeatherDisplay:10.37,2013-03-03 11:12:00,
2013-03-03 05:13:00,25.3,19.7,30.00,SE,136,3.5,3.5,79,0.00,CLR,,0.00,WeatherDisplay:10.37,2013-03-03 11:13:00,
2013-03-03 05:17:00,25.4,19.5,30.00,SSE,163,2.3,2.3,78,0.00,CLR,,0.00,WeatherDisplay:10.37,2013-03-03 11:17:00,
2013-03-03 05:18:00,25.4,19.5,30.00,SSE,160,3.5,3.5,78,0.00,CLR,,0.00,WeatherDisplay:10.37,2013-03-03 11:18:00,
2013-03-03 05:22:00,25.4,19.5,30.00,South,189,2.3,2.3,78,0.00,CLR,,0.00,WeatherDisplay:10.37,2013-03-03 11:22:00,
2013-03-03 05:23:00,25.4,19.5,30.00,SSE,165,2.3,2.3,78,0.00,CLR,,0.00,WeatherDisplay:10.37,2013-03-03 11:23:00,
2013-03-03 05:27:00,25.5,19.6,30.00,SSE,166,3.5,3.5,78,0.00,CLR,,0.00,WeatherDisplay:10.37,2013-03-03 11:27:00,
2013-03-03 05:28:00,25.5,19.6,30.00,South,183,3.5,3.5,78,0.00,CLR,,0.00,WeatherDisplay:10.37,2013-03-03 11:28:00,
2013-03-03 05:32:00,25.6,19.7,30.00,SSE,158,2.3,2.3,78,0.00,CLR,,0.00,WeatherDisplay:10.37,2013-03-03 11:32:00,
2013-03-03 05:33:00,25.6,19.7,30.00,SE,143,4.6,4.6,78,0.00,CLR,,0.00,WeatherDisplay:10.37,2013-03-03 11:33:00,
2013-03-03 05:37:00,25.6,19.7,30.00,SSE,167,3.5,3.5,78,0.00,CLR,,0.00,WeatherDisplay:10.37,2013-03-03 11:37:00,
2013-03-03 05:38:00,25.6,19.7,30.00,South,171,3.5,3.5,78,0.00,CLR,,0.00,WeatherDisplay:10.37,2013-03-03 11:38:00,
2013-03-03 05:39:00,25.7,19.8,30.00,SSE,148,4.0,4.0,78,0.00,CLR,,0.00,WeatherDisplay:10.37,2013-03-03 11:39:00,
2013-03-03 05:43:00,25.7,19.8,30.00,South,173,5.8,5.8,78,0.00,CLR,,0.00,WeatherDisplay:10.37,2013-03-03 11:43:00,
2013-03-03 05:44:00,25.7,19.8,30.00,SSE,148,5.8,5.8,78,0.00,CLR,,0.00,WeatherDisplay:10.37,2013-03-03 11:44:00,
2013-03-03 05:48:00,25.7,19.8,30.00,South,169,3.5,3.5,78,0.00,CLR,,0.00,WeatherDisplay:10.37,2013-03-03 11:48:00,
2013-03-03 05:49:00,25.7,19.8,30.00,South,175,3.5,3.5,78,0.00,CLR,,0.00,WeatherDisplay:10.37,2013-03-03 11:49:00,
2013-03-03 05:53:00,25.7,19.8,30.00,SE,136,3.5,3.5,78,0.00,CLR,,0.00,WeatherDisplay:10.37,2013-03-03 11:53:00,
2013-03-03 05:54:00,25.6,19.7,30.00,SSE,158,5.8,5.8,78,0.00,CLR,,0.00,WeatherDisplay:10.37,2013-03-03 11:54:00,
2013-03-03 05:58:00,25.6,19.7,30.00,South,173,4.6,4.6,78,0.00,CLR,,0.00,WeatherDisplay:10.37,2013-03-03 11:58:00,
2013-03-03 05:59:00,25.6,19.7,30.00,SE,132,2.3,2.3,78,0.00,CLR,,0.00,WeatherDisplay:10.37,2013-03-03 11:59:00,
2013-03-03 06:03:00,25.6,19.7,29.99,South,182,4.6,4.6,78,0.00,CLR,,0.00,WeatherDisplay:10.37,2013-03-03 12:03:00,
2013-03-03 06:04:00,25.6,19.7,30.00,SSE,159,4.0,4.0,78,0.00,CLR,,0.00,WeatherDisplay:10.37,2013-03-03 12:04:00,
2013-03-03 06:08:00,25.6,19.7,29.99,SSE,147,3.5,3.5,78,0.00,CLR,,0.00,WeatherDisplay:10.37,2013-03-03 12:08:00,
2013-03-03 06:09:00,25.7,19.8,29.99,SSE,167,5.0,5.0,78,0.00,CLR,,0.00,WeatherDisplay:10.37,2013-03-03 12:09:00,
2013-03-03 06:14:00,25.7,19.8,30.00,SE,142,3.0,3.0,78,0.00,CLR,,0.00,WeatherDisplay:10.37,2013-03-03 12:14:00,
2013-03-03 06:15:00,25.7,19.8,30.00,SSE,156,3.5,3.5,78,0.00,CLR,,0.00,WeatherDisplay:10.37,2013-03-03 12:15:00,
2013-03-03 06:19:00,25.7,19.8,30.00,South,173,3.5,3.5,78,0.00,CLR,,0.00,WeatherDisplay:10.37,2013-03-03 12:19:00,
2013-03-03 06:20:00,25.7,19.8,30.00,SSE,157,3.5,3.5,78,0.00,CLR,,0.00,WeatherDisplay:10.37,2013-03-03 12:20:00,
2013-03-03 06:24:00,25.8,19.9,30.00,SSE,159,2.3,2.3,78,0.00,CLR,,0.00,WeatherDisplay:10.37,2013-03-03 12:24:00,
2013-03-03 06:25:00,25.8,19.9,30.00,SSE,164,1.2,1.2,78,0.00,CLR,,0.00,WeatherDisplay:10.37,2013-03-03 12:25:00,
2013-03-03 06:29:00,25.9,20.0,30.00,ESE,113,2.3,2.3,78,0.00,CLR,,0.00,WeatherDisplay:10.37,2013-03-03 12:29:00,
2013-03-03 06:30:00,25.9,20.0,30.00,SSW,200,3.0,3.0,78,0.00,CLR,,0.00,WeatherDisplay:10.37,2013-03-03 12:30:00,
2013-03-03 06:34:00,26.0,20.1,30.00,SE,142,2.3,2.3,78,0.00,CLR,,0.00,WeatherDisplay:10.37,2013-03-03 12:34:00,
2013-03-03 06:35:00,26.0,20.1,30.00,SE,144,3.5,3.5,78,0.00,CLR,,0.00,WeatherDisplay:10.37,2013-03-03 12:35:00,
2013-03-03 06:39:00,26.2,20.3,30.00,SSE,151,3.5,3.5,78,0.00,CLR,,0.00,WeatherDisplay:10.37,2013-03-03 12:39:00,
2013-03-03 06:40:00,26.2,20.3,29.99,SSE,158,5.8,5.8,78,0.00,CLR,,0.00,WeatherDisplay:10.37,2013-03-03 12:40:00,
2013-03-03 06:44:00,26.2,20.3,29.99,SSE,154,2.3,2.3,78,0.00,CLR,,0.00,WeatherDisplay:10.37,2013-03-03 12:44:00,
2013-03-03 06:45:00,26.2,20.3,29.99,SSE,162,3.5,3.5,78,0.00,CLR,,0.00,WeatherDisplay:10.37,2013-03-03 12:45:00,
2013-03-03 06:49:00,26.2,20.3,29.99,SE,133,5.8,5.8,78,0.00,CLR,,0.00,WeatherDisplay:10.37,2013-03-03 12:49:00,
2013-03-03 06:51:00,26.3,20.4,29.99,SSE,166,4.6,4.6,78,0.00,CLR,,0.00,WeatherDisplay:10.37,2013-03-03 12:51:00,
2013-03-03 06:54:00,26.1,20.2,29.98,SSE,148,4.0,4.0,78,0.00,CLR,,0.00,WeatherDisplay:10.37,2013-03-03 12:54:00,
2013-03-03 06:56:00,26.1,20.2,29.98,SE,137,3.5,3.5,78,0.00,CLR,,0.00,WeatherDisplay:10.37,2013-03-03 12:56:00,
2013-03-03 06:59:00,26.1,20.2,29.98,SE,138,3.5,3.5,78,0.00,CLR,,0.00,WeatherDisplay:10.37,2013-03-03 12:59:00,
2013-03-03 07:00:00,26.1,20.2,29.98,SE,138,3.5,3.5,78,0.00,CLR,,0.00,WeatherDisplay:10.37,2013-03-03 13:00:00,
2013-03-03 07:01:00,26.1,20.2,29.99,SSE,150,3.5,3.5,78,0.00,CLR,,0.00,WeatherDisplay:10.37,2013-03-03 13:01:00,
2013-03-03 07:04:00,26.0,20.1,29.99,SSE,148,3.5,3.5,78,0.00,CLR,,0.00,WeatherDisplay:10.37,2013-03-03 13:04:00,
2013-03-03 07:05:00,26.1,20.2,29.99,SSE,157,3.5,3.5,78,0.00,CLR,,0.00,WeatherDisplay:10.37,2013-03-03 13:05:00,
2013-03-03 07:06:00,26.0,20.1,29.98,SSE,163,3.5,3.5,78,0.00,CLR,,0.00,WeatherDisplay:10.37,2013-03-03 13:06:00,
2013-03-03 07:10:00,26.0,20.1,29.98,SSE,150,4.0,4.0,78,0.00,CLR,,0.00,WeatherDisplay:10.37,2013-03-03 13:10:00,
2013-03-03 07:11:00,26.0,20.1,29.98,SSE,151,3.5,3.5,78,0.00,CLR,,0.00,WeatherDisplay:10.37,2013-03-03 13:11:00,
2013-03-03 07:15:00,26.1,20.2,29.98,SSE,166,3.5,3.5,78,0.00,CLR,,0.00,WeatherDisplay:10.37,2013-03-03 13:15:00,
2013-03-03 07:16:00,26.1,20.2,29.98,SSE,147,4.0,4.0,78,0.00,CLR,,0.00,WeatherDisplay:10.37,2013-03-03 13:16:00,
2013-03-03 07:20:00,26.1,20.2,29.98,SE,144,3.5,3.5,78,0.00,CLR,,0.00,WeatherDisplay:10.37,2013-03-03 13:20:00,
2013-03-03 07:21:00,26.1,20.2,29.98,SSW,193,3.5,3.5,78,0.00,CLR,,0.00,WeatherDisplay:10.37,2013-03-03 13:21:00,
2013-03-03 07:25:00,26.2,20.3,29.98,SE,124,3.0,3.0,78,0.00,CLR,,0.00,WeatherDisplay:10.37,2013-03-03 13:25:00,
2013-03-03 07:26:00,26.3,20.4,29.98,South,184,4.6,4.6,78,0.00,CLR,,0.00,WeatherDisplay:10.37,2013-03-03 13:26:00,
2013-03-03 07:27:00,26.2,20.3,29.98,South,171,4.6,4.6,78,0.00,CLR,,0.00,WeatherDisplay:10.37,2013-03-03 13:27:00,
2013-03-03 07:30:00,26.3,20.4,29.98,ESE,118,4.6,4.6,78,0.00,CLR,,0.00,WeatherDisplay:10.37,2013-03-03 13:30:00,
2013-03-03 07:31:00,26.3,20.4,29.98,SSE,160,4.6,4.6,78,0.00,CLR,,0.00,WeatherDisplay:10.37,2013-03-03 13:31:00,
2013-03-03 07:32:00,26.3,20.4,29.98,SE,146,2.3,2.3,78,0.00,CLR,,0.00,WeatherDisplay:10.37,2013-03-03 13:32:00,
2013-03-03 07:35:00,26.4,20.5,29.98,SSE,163,3.5,3.5,78,0.00,CLR,,0.00,WeatherDisplay:10.37,2013-03-03 13:35:00,
2013-03-03 07:36:00,26.3,20.4,29.98,SSE,163,1.2,1.2,78,0.00,CLR,,0.00,WeatherDisplay:10.37,2013-03-03 13:36:00,
2013-03-03 07:37:00,26.3,20.4,29.98,SSE,155,2.3,2.3,78,0.00,CLR,,0.00,WeatherDisplay:10.37,2013-03-03 13:37:00,
2013-03-03 07:40:00,26.4,20.5,29.97,SW,220,6.9,6.9,78,0.00,CLR,,0.00,WeatherDisplay:10.37,2013-03-03 13:40:00,
2013-03-03 07:41:00,26.5,20.6,29.97,SSW,196,5.8,5.8,78,0.00,CLR,,0.00,WeatherDisplay:10.37,2013-03-03 13:41:00,
2013-03-03 07:42:00,26.5,20.3,29.97,South,172,5.8,5.8,77,0.00,CLR,,0.00,WeatherDisplay:10.37,2013-03-03 13:42:00,
2013-03-03 07:45:00,26.6,20.4,29.97,South,170,3.5,3.5,77,0.00,CLR,,0.00,WeatherDisplay:10.37,2013-03-03 13:45:00,
2013-03-03 07:46:00,26.6,20.4,29.98,SE,144,3.5,3.5,77,0.00,CLR,,0.00,WeatherDisplay:10.37,2013-03-03 13:46:00,
2013-03-03 07:47:00,26.7,20.5,29.98,South,176,3.5,3.5,77,0.00,CLR,,0.00,WeatherDisplay:10.37,2013-03-03 13:47:00,
2013-03-03 07:50:00,27.0,20.7,29.98,ESE,116,3.0,3.0,77,0.00,CLR,,0.00,WeatherDisplay:10.37,2013-03-03 13:50:00,
2013-03-03 07:51:00,27.0,20.7,29.98,South,175,4.6,4.6,77,0.00,CLR,,0.00,WeatherDisplay:10.37,2013-03-03 13:51:00,
2013-03-03 07:52:00,27.0,20.7,29.98,SSW,207,4.6,4.6,77,0.00,CLR,,0.00,WeatherDisplay:10.37,2013-03-03 13:52:00,
2013-03-03 07:55:00,27.1,20.8,29.98,SSE,161,3.0,3.0,77,0.00,CLR,,0.00,WeatherDisplay:10.37,2013-03-03 13:55:00,
2013-03-03 07:56:00,27.2,20.9,29.98,SE,138,3.5,3.5,77,0.00,CLR,,0.00,WeatherDisplay:10.37,2013-03-03 13:56:00,
2013-03-03 07:57:00,27.2,20.6,29.97,ESE,123,3.5,3.5,76,0.00,CLR,,0.00,WeatherDisplay:10.37,2013-03-03 13:57:00,
2013-03-03 07:58:00,27.2,20.6,29.97,SSE,148,3.5,3.5,76,0.00,CLR,,0.00,WeatherDisplay:10.37,2013-03-03 13:58:00,
2013-03-03 08:00:00,27.4,20.8,29.97,South,175,4.6,4.6,76,0.00,CLR,,0.00,WeatherDisplay:10.37,2013-03-03 14:00:00,
2013-03-03 08:01:00,27.4,20.8,29.97,SE,132,4.6,4.6,76,0.00,CLR,,0.00,WeatherDisplay:10.37,2013-03-03 14:01:00,
2013-03-03 08:02:00,27.5,20.9,29.97,SSE,165,3.5,3.5,76,0.00,CLR,,0.00,WeatherDisplay:10.37,2013-03-03 14:02:00,
2013-03-03 08:03:00,27.5,20.9,29.97,SSE,165,3.5,3.5,76,0.00,CLR,,0.00,WeatherDisplay:10.37,2013-03-03 14:03:00,
2013-03-03 08:06:00,27.7,21.1,29.97,SSE,158,6.9,6.9,76,0.00,CLR,,0.00,WeatherDisplay:10.37,2013-03-03 14:06:00,
2013-03-03 08:07:00,27.9,21.0,29.97,South,175,4.6,4.6,75,0.00,CLR,,0.00,WeatherDisplay:10.37,2013-03-03 14:07:00,
2013-03-03 08:08:00,27.9,21.0,29.97,SSE,163,4.6,4.6,75,0.00,CLR,,0.00,WeatherDisplay:10.37,2013-03-03 14:08:00,
2013-03-03 08:11:00,28.1,21.5,29.97,SSE,159,4.6,4.6,76,0.00,CLR,,0.00,WeatherDisplay:10.37,2013-03-03 14:11:00,
2013-03-03 08:12:00,28.2,21.3,29.97,SSE,162,3.5,3.5,75,0.00,CLR,,0.00,WeatherDisplay:10.37,2013-03-03 14:12:00,
2013-03-03 08:13:00,28.3,21.4,29.97,SE,144,3.5,3.5,75,0.00,CLR,,0.00,WeatherDisplay:10.37,2013-03-03 14:13:00,
2013-03-03 08:16:00,28.5,21.3,29.97,South,184,6.9,6.9,74,0.00,CLR,,0.00,WeatherDisplay:10.37,2013-03-03 14:16:00,
2013-03-03 08:17:00,28.6,21.4,29.97,SE,128,5.8,5.8,74,0.00,CLR,,0.00,WeatherDisplay:10.37,2013-03-03 14:17:00,
2013-03-03 08:18:00,28.7,21.5,29.97,SE,135,5.8,5.8,74,0.00,CLR,,0.00,WeatherDisplay:10.37,2013-03-03 14:18:00,
2013-03-03 08:21:00,28.9,21.3,29.97,SSE,157,5.0,5.0,73,0.00,CLR,,0.00,WeatherDisplay:10.37,2013-03-03 14:21:00,
2013-03-03 08:22:00,28.9,21.3,29.97,South,174,8.1,8.1,73,0.00,CLR,,0.00,WeatherDisplay:10.37,2013-03-03 14:22:00,
2013-03-03 08:23:00,28.9,21.3,29.97,SSE,165,5.8,5.8,73,0.00,CLR,,0.00,WeatherDisplay:10.37,2013-03-03 14:23:00,
2013-03-03 08:24:00,29.0,21.4,29.97,South,187,4.0,4.0,73,0.00,CLR,,0.00,WeatherDisplay:10.37,2013-03-03 14:24:00,
2013-03-03 08:26:00,29.1,21.5,29.97,SE,128,10.4,10.4,73,0.00,CLR,,0.00,WeatherDisplay:10.37,2013-03-03 14:26:00,
2013-03-03 08:27:00,29.2,21.6,29.97,SSW,196,5.8,5.8,73,0.00,CLR,,0.00,WeatherDisplay:10.37,2013-03-03 14:27:00,
2013-03-03 08:28:00,29.2,21.6,29.97,South,177,5.8,5.8,73,0.00,CLR,,0.00,WeatherDisplay:10.37,2013-03-03 14:28:00,
2013-03-03 08:29:00,29.3,21.7,29.97,SE,140,4.6,4.6,73,0.00,CLR,,0.00,WeatherDisplay:10.37,2013-03-03 14:29:00,
2013-03-03 08:32:00,29.4,21.8,29.97,SSE,158,6.0,6.0,73,0.00,CLR,,0.00,WeatherDisplay:10.37,2013-03-03 14:32:00,
2013-03-03 08:33:00,29.5,21.9,29.96,SE,136,5.8,5.8,73,0.00,CLR,,0.00,WeatherDisplay:10.37,2013-03-03 14:33:00,
2013-03-03 08:34:00,29.6,22.0,29.97,South,172,3.5,3.5,73,0.00,CLR,,0.00,WeatherDisplay:10.37,2013-03-03 14:34:00,
2013-03-03 08:37:00,29.8,21.9,29.96,SSE,148,6.9,6.9,72,0.00,CLR,,0.00,WeatherDisplay:10.37,2013-03-03 14:37:00,
2013-03-03 08:38:00,29.8,21.9,29.96,South,173,5.8,5.8,72,0.00,CLR,,0.00,WeatherDisplay:10.37,2013-03-03 14:38:00,
2013-03-03 08:39:00,30.0,22.1,29.96,SE,141,4.6,4.6,72,0.00,CLR,,0.00,WeatherDisplay:10.37,2013-03-03 14:39:00,
2013-03-03 08:42:00,30.5,22.5,29.96,SSE,152,9.2,9.2,72,0.00,CLR,,0.00,WeatherDisplay:10.37,2013-03-03 14:42:00,
2013-03-03 08:43:00,30.6,22.6,29.96,SE,144,3.5,3.5,72,0.00,CLR,,0.00,WeatherDisplay:10.37,2013-03-03 14:43:00,
2013-03-03 08:44:00,30.8,22.8,29.96,SSE,155,3.5,3.5,72,0.00,CLR,,0.00,WeatherDisplay:10.37,2013-03-03 14:44:00,
2013-03-03 08:47:00,31.3,22.6,29.96,SSW,204,5.8,5.8,70,0.00,CLR,,0.00,WeatherDisplay:10.37,2013-03-03 14:47:00,
2013-03-03 08:48:00,31.4,22.7,29.96,SE,132,5.8,5.8,70,0.00,CLR,,0.00,WeatherDisplay:10.37,2013-03-03 14:48:00,
2013-03-03 08:49:00,31.5,22.8,29.96,SSE,148,4.6,4.6,70,0.00,CLR,,0.00,WeatherDisplay:10.37,2013-03-03 14:49:00,
2013-03-03 08:53:00,31.8,23.1,29.96,SSE,153,4.6,4.6,70,0.00,CLR,,0.00,WeatherDisplay:10.37,2013-03-03 14:53:00,
2013-03-03 08:54:00,32.0,23.0,29.96,SE,130,3.5,3.5,69,0.00,CLR,,0.00,WeatherDisplay:10.37,2013-03-03 14:54:00,
2013-03-03 08:58:00,32.4,23.4,29.95,South,186,6.9,6.9,69,0.00,CLR,,0.00,WeatherDisplay:10.37,2013-03-03 14:58:00,
2013-03-03 08:59:00,32.5,23.1,29.95,South,178,4.6,4.6,68,0.00,CLR,,0.00,WeatherDisplay:10.37,2013-03-03 14:59:00,
2013-03-03 09:03:00,32.7,23.3,29.95,SE,140,3.5,3.5,68,0.00,CLR,,0.00,WeatherDisplay:10.37,2013-03-03 15:03:00,
2013-03-03 09:04:00,32.8,23.7,29.95,SE,133,6.0,6.0,69,0.00,CLR,,0.00,WeatherDisplay:10.37,2013-03-03 15:04:00,
2013-03-03 09:08:00,32.9,23.5,29.95,SSE,154,4.0,4.0,68,0.00,CLR,,0.00,WeatherDisplay:10.37,2013-03-03 15:08:00,
2013-03-03 09:09:00,32.9,23.5,29.95,SSE,163,3.5,3.5,68,0.00,CLR,,0.00,WeatherDisplay:10.37,2013-03-03 15:09:00,
2013-03-03 09:10:00,33.0,23.6,29.95,SE,136,7.0,7.0,68,0.00,CLR,,0.00,WeatherDisplay:10.37,2013-03-03 15:10:00,
2013-03-03 09:13:00,33.3,23.9,29.95,SSW,207,4.6,4.6,68,0.00,CLR,,0.00,WeatherDisplay:10.37,2013-03-03 15:13:00,
2013-03-03 09:14:00,33.3,23.5,29.95,South,186,4.6,4.6,67,0.00,CLR,,0.00,WeatherDisplay:10.37,2013-03-03 15:14:00,
2013-03-03 09:15:00,33.3,23.5,29.95,South,170,9.2,9.2,67,0.00,CLR,,0.00,WeatherDisplay:10.37,2013-03-03 15:15:00,
2013-03-03 09:19:00,33.3,23.5,29.95,SE,140,3.5,3.5,67,0.00,CLR,,0.00,WeatherDisplay:10.37,2013-03-03 15:19:00,
2013-03-03 09:20:00,33.3,23.5,29.95,SE,132,4.6,4.6,67,0.00,CLR,,0.00,WeatherDisplay:10.37,2013-03-03 15:20:00,
2013-03-03 09:27:00,33.4,23.6,29.94,SE,138,8.0,8.0,67,0.00,CLR,,0.00,WeatherDisplay:10.37,2013-03-03 15:27:00,
2013-03-03 09:32:00,33.3,23.5,29.94,SSE,152,5.0,5.0,67,0.00,CLR,,0.00,WeatherDisplay:10.37,2013-03-03 15:32:00,
2013-03-03 09:33:00,33.3,23.5,29.94,SSE,148,6.9,6.9,67,0.00,CLR,,0.00,WeatherDisplay:10.37,2013-03-03 15:33:00,
2013-03-03 09:37:00,34.0,24.2,29.94,SE,130,9.0,9.0,67,0.00,CLR,,0.00,WeatherDisplay:10.37,2013-03-03 15:37:00,
2013-03-03 09:38:00,34.1,23.9,29.94,SSE,161,10.4,10.4,66,0.00,CLR,,0.00,WeatherDisplay:10.37,2013-03-03 15:38:00,
2013-03-03 09:42:00,34.4,23.8,29.94,SE,140,6.9,6.9,65,0.00,CLR,,0.00,WeatherDisplay:10.37,2013-03-03 15:42:00,
2013-03-03 09:43:00,34.4,23.8,29.94,SE,146,4.0,4.0,65,0.00,CLR,,0.00,WeatherDisplay:10.37,2013-03-03 15:43:00,
2013-03-03 09:47:00,34.7,23.8,29.93,SSE,158,9.2,9.2,64,0.00,CLR,,0.00,WeatherDisplay:10.37,2013-03-03 15:47:00,
2013-03-03 09:48:00,34.7,23.8,29.93,South,169,8.1,8.1,64,0.00,CLR,,0.00,WeatherDisplay:10.37,2013-03-03 15:48:00,
2013-03-03 09:52:00,35.2,24.6,29.93,SE,132,7.0,7.0,65,0.00,CLR,,0.00,WeatherDisplay:10.37,2013-03-03 15:52:00,
2013-03-03 09:53:00,35.3,24.7,29.93,South,171,4.6,4.6,65,0.00,CLR,,0.00,WeatherDisplay:10.37,2013-03-03 15:53:00,
2013-03-03 09:58:00,35.9,24.9,29.93,ESE,122,5.0,5.0,64,0.00,CLR,,0.00,WeatherDisplay:10.37,2013-03-03 15:58:00,
2013-03-03 10:03:00,36.5,24.3,29.93,South,176,10.4,10.4,61,0.00,CLR,,0.00,WeatherDisplay:10.37,2013-03-03 16:03:00,
2013-03-03 10:04:00,36.4,24.6,29.93,SE,130,4.6,4.6,62,0.00,CLR,,0.00,WeatherDisplay:10.37,2013-03-03 16:04:00,
2013-03-03 10:08:00,36.6,24.8,29.93,SSE,165,6.9,6.9,62,0.00,CLR,,0.00,WeatherDisplay:10.37,2013-03-03 16:08:00,
2013-03-03 10:09:00,36.7,24.5,29.93,SSE,147,6.9,6.9,61,0.00,CLR,,0.00,WeatherDisplay:10.37,2013-03-03 16:09:00,
2013-03-03 10:13:00,36.8,24.2,29.92,South,189,8.1,8.1,60,0.00,CLR,,0.00,WeatherDisplay:10.37,2013-03-03 16:13:00,
2013-03-03 10:14:00,36.9,24.3,29.92,South,182,5.8,5.8,60,0.00,CLR,,0.00,WeatherDisplay:10.37,2013-03-03 16:14:00,
2013-03-03 10:18:00,38.0,24.9,29.92,SSE,153,3.5,3.5,59,0.00,CLR,,0.00,WeatherDisplay:10.37,2013-03-03 16:18:00,
2013-03-03 10:19:00,38.1,25.0,29.92,SSE,150,3.5,3.5,59,0.00,CLR,,0.00,WeatherDisplay:10.37,2013-03-03 16:19:00,
2013-03-03 10:23:00,38.2,24.7,29.92,SSE,148,6.9,6.9,58,0.00,CLR,,0.00,WeatherDisplay:10.37,2013-03-03 16:23:00,
2013-03-03 10:24:00,38.2,24.7,29.92,SE,138,8.1,8.1,58,0.00,CLR,,0.00,WeatherDisplay:10.37,2013-03-03 16:24:00,
2013-03-03 10:25:00,38.2,25.1,29.92,West,271,8.1,8.1,59,0.00,CLR,,0.00,WeatherDisplay:10.37,2013-03-03 16:25:00,
2013-03-03 10:28:00,38.6,24.7,30.05,SSE,147,12.7,12.7,57,0.00,CLR,,0.00,WeatherDisplay:10.37,2013-03-03 16:28:00,
2013-03-03 10:29:00,38.5,24.6,30.05,SE,138,12.7,12.7,57,0.00,CLR,,0.00,WeatherDisplay:10.37,2013-03-03 16:29:00,
2013-03-03 10:30:00,38.5,25.0,30.05,SSE,157,4.6,4.6,58,0.00,CLR,,0.00,WeatherDisplay:10.37,2013-03-03 16:30:00,
2013-03-03 10:33:00,38.6,25.9,30.05,South,177,3.5,3.5,60,0.00,CLR,,0.00,WeatherDisplay:10.37,2013-03-03 16:33:00,
2013-03-03 10:34:00,38.6,25.1,30.05,SSE,167,7.0,7.0,58,0.00,CLR,,0.00,WeatherDisplay:10.37,2013-03-03 16:34:00,
2013-03-03 10:35:00,38.6,25.1,30.05,SSW,207,6.9,6.9,58,0.00,CLR,,0.00,WeatherDisplay:10.37,2013-03-03 16:35:00,
2013-03-03 10:38:00,38.8,25.3,30.05,ESE,116,3.5,3.5,58,0.00,CLR,,0.00,WeatherDisplay:10.37,2013-03-03 16:38:00,
2013-03-03 10:39:00,38.9,25.4,30.05,South,175,6.0,6.0,58,0.00,CLR,,0.00,WeatherDisplay:10.37,2013-03-03 16:39:00,
2013-03-03 10:40:00,38.9,25.4,30.05,SSE,152,6.9,6.9,58,0.00,CLR,,0.00,WeatherDisplay:10.37,2013-03-03 16:40:00,
2013-03-03 10:44:00,38.8,25.3,30.05,SSE,154,9.2,9.2,58,0.00,CLR,,0.00,WeatherDisplay:10.37,2013-03-03 16:44:00,
2013-03-03 10:45:00,38.7,25.6,30.05,SSE,165,3.5,3.5,59,0.00,CLR,,0.00,WeatherDisplay:10.37,2013-03-03 16:45:00,
2013-03-03 10:49:00,39.1,25.6,30.04,SE,142,11.5,11.5,58,0.00,CLR,,0.00,WeatherDisplay:10.37,2013-03-03 16:49:00,
2013-03-03 10:50:00,39.0,25.9,30.04,ESE,113,7.0,7.0,59,0.00,CLR,,0.00,WeatherDisplay:10.37,2013-03-03 16:50:00,
2013-03-03 10:54:00,38.8,25.3,30.04,South,178,8.1,8.1,58,0.00,CLR,,0.00,WeatherDisplay:10.37,2013-03-03 16:54:00,
2013-03-03 10:55:00,38.7,25.2,30.04,SSE,159,9.2,9.2,58,0.00,CLR,,0.00,WeatherDisplay:10.37,2013-03-03 16:55:00,
2013-03-03 10:59:00,38.9,25.8,30.03,SE,135,8.1,8.1,59,0.00,CLR,,0.00,WeatherDisplay:10.37,2013-03-03 16:59:00,
2013-03-03 11:00:00,38.9,25.8,30.03,SSE,161,4.6,4.6,59,0.00,CLR,,0.00,WeatherDisplay:10.37,2013-03-03 17:00:00,
2013-03-03 11:01:00,38.9,25.8,30.03,SW,234,3.5,3.5,59,0.00,CLR,,0.00,WeatherDisplay:10.37,2013-03-03 17:01:00,
2013-03-03 11:04:00,39.2,26.1,30.03,SE,128,6.9,6.9,59,0.00,CLR,,0.00,WeatherDisplay:10.37,2013-03-03 17:04:00,
2013-03-03 11:05:00,39.3,26.2,30.03,SE,129,4.0,4.0,59,0.00,CLR,,0.00,WeatherDisplay:10.37,2013-03-03 17:05:00,
2013-03-03 11:06:00,39.3,26.2,30.03,East,82,4.6,4.6,59,0.00,CLR,,0.00,WeatherDisplay:10.37,2013-03-03 17:06:00,
2013-03-03 11:09:00,39.5,25.9,30.03,NE,56,4.0,4.0,58,0.00,CLR,,0.00,WeatherDisplay:10.37,2013-03-03 17:09:00,
2013-03-03 11:10:00,39.3,25.7,30.03,South,173,6.9,6.9,58,0.00,CLR,,0.00,WeatherDisplay:10.37,2013-03-03 17:10:00,
2013-03-03 11:11:00,39.2,25.6,30.03,SSE,150,10.4,10.4,58,0.00,CLR,,0.00,WeatherDisplay:10.37,2013-03-03 17:11:00,
2013-03-03 11:14:00,39.0,25.9,30.03,SSE,153,5.8,5.8,59,0.00,CLR,,0.00,WeatherDisplay:10.37,2013-03-03 17:14:00,
2013-03-03 11:15:00,38.9,25.8,30.03,SSE,158,8.1,8.1,59,0.00,CLR,,0.00,WeatherDisplay:10.37,2013-03-03 17:15:00,
2013-03-03 11:16:00,38.9,25.8,30.03,SE,145,8.1,8.1,59,0.00,CLR,,0.00,WeatherDisplay:10.37,2013-03-03 17:16:00,
2013-03-03 11:19:00,39.2,25.6,30.03,SSE,149,3.5,3.5,58,0.00,CLR,,0.00,WeatherDisplay:10.37,2013-03-03 17:19:00,
2013-03-03 11:20:00,39.3,25.7,30.03,South,169,6.9,6.9,58,0.00,CLR,,0.00,WeatherDisplay:10.37,2013-03-03 17:20:00,
2013-03-03 11:21:00,39.3,25.7,30.03,SE,131,6.9,6.9,58,0.00,CLR,,0.00,WeatherDisplay:10.37,2013-03-03 17:21:00,
2013-03-03 11:25:00,39.3,25.7,30.03,SSE,155,6.9,6.9,58,0.00,CLR,,0.00,WeatherDisplay:10.37,2013-03-03 17:25:00,
2013-03-03 11:26:00,39.3,26.2,30.03,South,169,5.8,5.8,59,0.00,CLR,,0.00,WeatherDisplay:10.37,2013-03-03 17:26:00,
2013-03-03 11:30:00,39.7,26.1,30.03,South,190,4.6,4.6,58,0.00,CLR,,0.00,WeatherDisplay:10.37,2013-03-03 17:30:00,
2013-03-03 11:31:00,39.7,26.1,30.03,SE,140,5.0,5.0,58,0.00,CLR,,0.00,WeatherDisplay:10.37,2013-03-03 17:31:00,
2013-03-03 11:32:00,39.8,25.8,30.03,SSE,153,5.8,5.8,57,0.00,CLR,,0.00,WeatherDisplay:10.37,2013-03-03 17:32:00,
2013-03-03 11:35:00,40.1,26.1,30.03,SSE,157,5.8,5.8,57,0.00,CLR,,0.00,WeatherDisplay:10.37,2013-03-03 17:35:00,
2013-03-03 11:36:00,40.0,26.0,30.03,SSE,160,6.9,6.9,57,0.00,CLR,,0.00,WeatherDisplay:10.37,2013-03-03 17:36:00,
2013-03-03 11:37:00,40.0,26.8,30.02,South,182,4.6,4.6,59,0.00,CLR,,0.00,WeatherDisplay:10.37,2013-03-03 17:37:00,
2013-03-03 11:40:00,40.0,26.4,30.02,South,190,4.6,4.6,58,0.00,CLR,,0.00,WeatherDisplay:10.37,2013-03-03 17:40:00,
2013-03-03 11:41:00,40.2,26.6,30.03,SSE,167,5.8,5.8,58,0.00,CLR,,0.00,WeatherDisplay:10.37,2013-03-03 17:41:00,
2013-03-03 11:42:00,40.3,26.7,30.02,ESE,113,6.0,6.0,58,0.00,CLR,,0.00,WeatherDisplay:10.37,2013-03-03 17:42:00,
2013-03-03 11:43:00,40.3,26.7,30.02,ESE,114,6.9,6.9,58,0.00,CLR,,0.00,WeatherDisplay:10.37,2013-03-03 17:43:00,
2013-03-03 11:45:00,40.2,26.6,30.02,South,184,5.8,5.8,58,0.00,CLR,,0.00,WeatherDisplay:10.37,2013-03-03 17:45:00,
2013-03-03 11:46:00,40.1,26.1,30.02,SSE,155,5.8,5.8,57,0.00,CLR,,0.00,WeatherDisplay:10.37,2013-03-03 17:46:00,
2013-03-03 11:47:00,40.1,26.1,30.02,South,170,6.9,6.9,57,0.00,CLR,,0.00,WeatherDisplay:10.37,2013-03-03 17:47:00,
2013-03-03 11:48:00,40.0,26.4,30.02,SSE,159,6.9,6.9,58,0.00,CLR,,0.00,WeatherDisplay:10.37,2013-03-03 17:48:00,
2013-03-03 11:50:00,39.7,26.5,30.02,South,170,6.9,6.9,59,0.00,CLR,,0.00,WeatherDisplay:10.37,2013-03-03 17:50:00,
2013-03-03 11:51:00,39.6,26.4,30.02,SSE,153,6.9,6.9,59,0.00,CLR,,0.00,WeatherDisplay:10.37,2013-03-03 17:51:00,
2013-03-03 11:52:00,39.6,26.4,30.02,South,187,3.5,3.5,59,0.00,CLR,,0.00,WeatherDisplay:10.37,2013-03-03 17:52:00,
2013-03-03 11:53:00,39.7,26.9,30.02,SSE,155,4.6,4.6,60,0.00,CLR,,0.00,WeatherDisplay:10.37,2013-03-03 17:53:00,
2013-03-03 11:56:00,40.0,26.4,30.01,SSW,195,11.5,11.5,58,0.00,CLR,,0.00,WeatherDisplay:10.37,2013-03-03 17:56:00,
2013-03-03 11:57:00,39.9,26.3,30.01,ESE,123,6.9,6.9,58,0.00,CLR,,0.00,WeatherDisplay:10.37,2013-03-03 17:57:00,
2013-03-03 11:58:00,39.8,26.6,30.01,South,178,6.0,6.0,59,0.00,CLR,,0.00,WeatherDisplay:10.37,2013-03-03 17:58:00,
2013-03-03 12:01:00,40.1,26.9,30.01,SSW,205,5.0,5.0,59,0.00,CLR,,0.00,WeatherDisplay:10.37,2013-03-03 18:01:00,
2013-03-03 12:02:00,40.2,26.6,30.01,SSW,198,4.6,4.6,58,0.00,CLR,,0.00,WeatherDisplay:10.37,2013-03-03 18:02:00,
2013-03-03 12:03:00,40.2,26.6,30.01,SE,146,8.1,8.1,58,0.00,CLR,,0.00,WeatherDisplay:10.37,2013-03-03 18:03:00,
2013-03-03 12:06:00,40.2,26.6,30.02,SSE,167,4.6,4.6,58,0.00,CLR,,0.00,WeatherDisplay:10.37,2013-03-03 18:06:00,
2013-03-03 12:07:00,40.2,26.6,30.02,SW,222,8.0,8.0,58,0.00,CLR,,0.00,WeatherDisplay:10.37,2013-03-03 18:07:00,
2013-03-03 12:08:00,40.1,26.5,30.01,SSE,155,10.4,10.4,58,0.00,CLR,,0.00,WeatherDisplay:10.37,2013-03-03 18:08:00,
2013-03-03 12:09:00,40.2,26.6,30.01,SSE,165,5.8,5.8,58,0.00,CLR,,0.00,WeatherDisplay:10.37,2013-03-03 18:09:00,
2013-03-03 12:11:00,40.7,27.5,30.01,SE,131,6.9,6.9,59,0.00,CLR,,0.00,WeatherDisplay:10.37,2013-03-03 18:11:00,
2013-03-03 12:12:00,40.7,27.5,30.01,SSE,156,6.9,6.9,59,0.00,CLR,,0.00,WeatherDisplay:10.37,2013-03-03 18:12:00,
2013-03-03 12:13:00,40.7,27.1,30.01,SSE,147,4.6,4.6,58,0.00,CLR,,0.00,WeatherDisplay:10.37,2013-03-03 18:13:00,
2013-03-03 12:14:00,40.7,26.6,30.01,SSE,152,3.5,3.5,57,0.00,CLR,,0.00,WeatherDisplay:10.37,2013-03-03 18:14:00,
2013-03-03 12:17:00,41.0,26.9,30.01,ESE,117,3.5,3.5,57,0.00,CLR,,0.00,WeatherDisplay:10.37,2013-03-03 18:17:00,
2013-03-03 12:18:00,41.0,26.9,30.01,SE,144,6.0,6.0,57,0.00,CLR,,0.00,WeatherDisplay:10.37,2013-03-03 18:18:00,
2013-03-03 12:19:00,40.8,26.7,30.00,South,172,8.1,8.1,57,0.00,CLR,,0.00,WeatherDisplay:10.37,2013-03-03 18:19:00,
2013-03-03 12:22:00,40.8,27.2,30.00,SE,146,2.3,2.3,58,0.00,CLR,,0.00,WeatherDisplay:10.37,2013-03-03 18:22:00,
2013-03-03 12:23:00,41.0,27.3,30.00,SSE,160,6.0,6.0,58,0.00,CLR,,0.00,WeatherDisplay:10.37,2013-03-03 18:23:00,
2013-03-03 12:24:00,40.9,27.2,30.00,SE,133,3.5,3.5,58,0.00,CLR,,0.00,WeatherDisplay:10.37,2013-03-03 18:24:00,
2013-03-03 12:27:00,41.0,26.9,30.00,SE,124,3.5,3.5,57,0.00,CLR,,0.00,WeatherDisplay:10.37,2013-03-03 18:27:00,
2013-03-03 12:28:00,41.0,26.9,30.00,SW,231,3.5,3.5,57,0.00,CLR,,0.00,WeatherDisplay:10.37,2013-03-03 18:28:00,
2013-03-03 12:29:00,41.1,27.4,30.00,ESE,110,3.5,3.5,58,0.00,CLR,,0.00,WeatherDisplay:10.37,2013-03-03 18:29:00,
2013-03-03 12:32:00,41.1,27.0,30.00,South,182,4.6,4.6,57,0.00,CLR,,0.00,WeatherDisplay:10.37,2013-03-03 18:32:00,
2013-03-03 12:33:00,41.2,27.5,30.00,East,82,2.3,2.3,58,0.00,CLR,,0.00,WeatherDisplay:10.37,2013-03-03 18:33:00,
2013-03-03 12:34:00,41.2,27.1,30.00,SSE,153,6.9,6.9,57,0.00,CLR,,0.00,WeatherDisplay:10.37,2013-03-03 18:34:00,
2013-03-03 12:37:00,41.5,27.4,29.99,ESE,121,5.8,5.8,57,0.00,CLR,,0.00,WeatherDisplay:10.37,2013-03-03 18:37:00,
2013-03-03 12:38:00,41.6,27.1,29.99,SSE,150,8.1,8.1,56,0.00,CLR,,0.00,WeatherDisplay:10.37,2013-03-03 18:38:00,
2013-03-03 12:39:00,41.6,27.5,29.99,SE,136,8.1,8.1,57,0.00,CLR,,0.00,WeatherDisplay:10.37,2013-03-03 18:39:00,
2013-03-03 12:40:00,41.6,27.5,29.99,South,184,3.5,3.5,57,0.00,CLR,,0.00,WeatherDisplay:10.37,2013-03-03 18:40:00,
2013-03-03 12:42:00,41.8,27.7,29.99,SE,146,5.8,5.8,57,0.00,CLR,,0.00,WeatherDisplay:10.37,2013-03-03 18:42:00,
2013-03-03 12:43:00,41.9,27.8,29.99,East,92,4.6,4.6,57,0.00,CLR,,0.00,WeatherDisplay:10.37,2013-03-03 18:43:00,
2013-03-03 12:44:00,41.9,27.8,29.99,SSE,166,3.5,3.5,57,0.00,CLR,,0.00,WeatherDisplay:10.37,2013-03-03 18:44:00,
2013-03-03 12:45:00,42.0,27.4,29.99,SE,139,8.1,8.1,56,0.00,CLR,,0.00,WeatherDisplay:10.37,2013-03-03 18:45:00,
2013-03-03 12:47:00,41.7,27.1,29.99,South,189,5.8,5.8,56,0.00,CLR,,0.00,WeatherDisplay:10.37,2013-03-03 18:47:00,
2013-03-03 12:48:00,41.6,26.6,29.99,SSE,157,3.5,3.5,55,0.00,CLR,,0.00,WeatherDisplay:10.37,2013-03-03 18:48:00,
2013-03-03 12:49:00,41.5,26.5,29.99,SE,134,6.9,6.9,55,0.00,CLR,,0.00,WeatherDisplay:10.37,2013-03-03 18:49:00,
2013-03-03 12:50:00,41.6,27.1,29.98,SE,142,3.5,3.5,56,0.00,CLR,,0.00,WeatherDisplay:10.37,2013-03-03 18:50:00,
2013-03-03 12:52:00,41.6,27.1,29.98,ESE,121,3.5,3.5,56,0.00,CLR,,0.00,WeatherDisplay:10.37,2013-03-03 18:52:00,
2013-03-03 12:53:00,41.6,27.5,29.98,SW,214,3.5,3.5,57,0.00,CLR,,0.00,WeatherDisplay:10.37,2013-03-03 18:53:00,
2013-03-03 12:54:00,41.6,27.5,29.98,East,98,6.9,6.9,57,0.00,CLR,,0.00,WeatherDisplay:10.37,2013-03-03 18:54:00,
2013-03-03 12:55:00,41.6,27.5,29.98,SSE,155,2.3,2.3,57,0.00,CLR,,0.00,WeatherDisplay:10.37,2013-03-03 18:55:00,
2013-03-03 12:57:00,41.6,27.1,29.98,SE,141,5.8,5.8,56,0.00,CLR,,0.00,WeatherDisplay:10.37,2013-03-03 18:57:00,
2013-03-03 12:58:00,41.7,27.6,29.98,ESE,123,4.6,4.6,57,0.00,CLR,,0.00,WeatherDisplay:10.37,2013-03-03 18:58:00,
2013-03-03 12:59:00,41.8,27.2,29.98,SE,134,4.6,4.6,56,0.00,CLR,,0.00,WeatherDisplay:10.37,2013-03-03 18:59:00,
2013-03-03 13:00:00,41.8,27.2,29.98,East,84,6.9,6.9,56,0.00,CLR,,0.00,WeatherDisplay:10.37,2013-03-03 19:00:00,
2013-03-03 13:02:00,41.7,27.6,29.98,SSE,153,5.8,5.8,57,0.00,CLR,,0.00,WeatherDisplay:10.37,2013-03-03 19:02:00,
2013-03-03 13:04:00,41.7,27.6,29.98,SE,138,4.6,4.6,57,0.00,CLR,,0.00,WeatherDisplay:10.37,2013-03-03 19:04:00,
2013-03-03 13:05:00,41.8,27.7,29.98,South,175,2.3,2.5,57,0.00,CLR,,0.00,WeatherDisplay:10.37,2013-03-03 19:05:00,
2013-03-03 13:08:00,41.5,27.4,29.97,SE,132,9.0,9.0,57,0.00,CLR,,0.00,WeatherDisplay:10.37,2013-03-03 19:08:00,
2013-03-03 13:09:00,41.5,27.4,29.97,South,174,9.2,9.2,57,0.00,CLR,,0.00,WeatherDisplay:10.37,2013-03-03 19:09:00,
2013-03-03 13:10:00,41.4,27.7,29.98,SSE,161,4.0,4.0,58,0.00,CLR,,0.00,WeatherDisplay:10.37,2013-03-03 19:10:00,
2013-03-03 13:13:00,41.4,27.7,29.97,SE,128,5.8,5.8,58,0.00,CLR,,0.00,WeatherDisplay:10.37,2013-03-03 19:13:00,
2013-03-03 13:14:00,41.5,27.4,29.97,ESE,111,4.6,4.6,57,0.00,CLR,,0.00,WeatherDisplay:10.37,2013-03-03 19:14:00,
2013-03-03 13:15:00,41.5,27.4,29.97,East,86,4.6,4.6,57,0.00,CLR,,0.00,WeatherDisplay:10.37,2013-03-03 19:15:00,
2013-03-03 13:18:00,41.8,27.7,29.97,SE,129,5.8,5.8,57,0.00,CLR,,0.00,WeatherDisplay:10.37,2013-03-03 19:18:00,
2013-03-03 13:19:00,41.6,27.5,29.97,SSE,165,4.6,4.6,57,0.00,CLR,,0.00,WeatherDisplay:10.37,2013-03-03 19:19:00,
2013-03-03 13:20:00,41.6,27.5,29.97,East,95,4.6,4.6,57,0.00,CLR,,0.00,WeatherDisplay:10.37,2013-03-03 19:20:00,
2013-03-03 13:23:00,41.8,27.2,29.97,South,190,7.0,7.0,56,0.00,CLR,,0.00,WeatherDisplay:10.37,2013-03-03 19:23:00,
2013-03-03 13:24:00,41.8,27.2,29.97,SE,132,6.9,6.9,56,0.00,CLR,,0.00,WeatherDisplay:10.37,2013-03-03 19:24:00,
2013-03-03 13:25:00,41.8,27.7,29.97,South,171,6.9,6.9,57,0.00,CLR,,0.00,WeatherDisplay:10.37,2013-03-03 19:25:00,
2013-03-03 13:26:00,41.8,27.7,29.97,SE,140,4.6,4.6,57,0.00,CLR,,0.00,WeatherDisplay:10.37,2013-03-03 19:26:00,
2013-03-03 13:28:00,41.8,27.7,29.97,SE,140,4.6,4.6,57,0.00,CLR,,0.00,WeatherDisplay:10.37,2013-03-03 19:28:00,
2013-03-03 13:30:00,41.8,27.7,29.97,SSE,148,8.1,8.1,57,0.00,CLR,,0.00,WeatherDisplay:10.37,2013-03-03 19:30:00,
2013-03-03 13:31:00,41.8,27.7,29.97,SSE,152,8.1,8.1,57,0.00,CLR,,0.00,WeatherDisplay:10.37,2013-03-03 19:31:00,
2013-03-03 13:33:00,42.0,27.9,29.96,ESE,115,3.5,3.5,57,0.00,CLR,,0.00,WeatherDisplay:10.37,2013-03-03 19:33:00,
2013-03-03 13:35:00,42.2,27.6,29.96,SE,128,2.3,2.3,56,0.00,CLR,,0.00,WeatherDisplay:10.37,2013-03-03 19:35:00,
2013-03-03 13:36:00,42.3,28.1,29.96,ESE,115,3.5,3.5,57,0.00,CLR,,0.00,WeatherDisplay:10.37,2013-03-03 19:36:00,
2013-03-03 13:38:00,42.4,27.8,29.96,East,86,3.5,3.5,56,0.00,CLR,,0.00,WeatherDisplay:10.37,2013-03-03 19:38:00,
2013-03-03 13:40:00,42.4,27.8,29.96,SE,134,4.6,4.6,56,0.00,CLR,,0.00,WeatherDisplay:10.37,2013-03-03 19:40:00,
2013-03-03 13:41:00,42.3,28.1,29.96,SE,130,4.6,4.6,57,0.00,CLR,,0.00,WeatherDisplay:10.37,2013-03-03 19:41:00,
2013-03-03 13:43:00,42.4,27.8,29.96,South,172,3.5,3.5,56,0.00,CLR,,0.00,WeatherDisplay:10.37,2013-03-03 19:43:00,
2013-03-03 13:45:00,42.3,27.7,29.95,SSE,163,3.5,4.0,56,0.00,CLR,,0.00,WeatherDisplay:10.37,2013-03-03 19:45:00,
2013-03-03 13:46:00,42.2,27.6,29.95,East,93,6.9,6.9,56,0.00,CLR,,0.00,WeatherDisplay:10.37,2013-03-03 19:46:00,
2013-03-03 13:47:00,42.2,28.0,29.95,SSW,205,5.0,5.0,57,0.00,CLR,,0.00,WeatherDisplay:10.37,2013-03-03 19:47:00,
2013-03-03 13:48:00,42.2,27.6,29.95,SE,125,7.0,7.0,56,0.00,CLR,,0.00,WeatherDisplay:10.37,2013-03-03 19:48:00,
2013-03-03 13:50:00,42.2,27.6,29.95,East,97,3.5,3.5,56,0.00,CLR,,0.00,WeatherDisplay:10.37,2013-03-03 19:50:00,
2013-03-03 13:51:00,42.2,27.6,29.95,ENE,62,3.5,3.5,56,0.00,CLR,,0.00,WeatherDisplay:10.37,2013-03-03 19:51:00,
2013-03-03 13:52:00,42.2,27.6,29.95,SSE,165,3.5,3.5,56,0.00,CLR,,0.00,WeatherDisplay:10.37,2013-03-03 19:52:00,
2013-03-03 13:53:00,42.3,27.7,29.95,ENE,76,2.3,3.3,56,0.00,CLR,,0.00,WeatherDisplay:10.37,2013-03-03 19:53:00,
2013-03-03 13:55:00,42.3,27.7,29.95,SE,135,3.5,3.5,56,0.00,CLR,,0.00,WeatherDisplay:10.37,2013-03-03 19:55:00,
2013-03-03 13:56:00,42.3,28.1,29.95,South,171,3.5,3.5,57,0.00,CLR,,0.00,WeatherDisplay:10.37,2013-03-03 19:56:00,
2013-03-03 13:57:00,42.3,28.1,29.94,SE,125,5.8,5.8,57,0.00,CLR,,0.00,WeatherDisplay:10.37,2013-03-03 19:57:00,
2013-03-03 13:58:00,42.4,27.8,29.94,East,90,3.5,3.5,56,0.00,CLR,,0.00,WeatherDisplay:10.37,2013-03-03 19:58:00,
2013-03-03 14:01:00,42.2,27.6,29.94,SE,138,3.5,3.5,56,0.00,CLR,,0.00,WeatherDisplay:10.37,2013-03-03 20:01:00,
2013-03-03 14:02:00,42.2,27.6,29.94,SE,134,4.0,4.0,56,0.00,CLR,,0.00,WeatherDisplay:10.37,2013-03-03 20:02:00,
2013-03-03 14:03:00,42.1,27.5,29.94,SSE,159,3.5,3.5,56,0.00,CLR,,0.00,WeatherDisplay:10.37,2013-03-03 20:03:00,
2013-03-03 14:07:00,42.3,28.6,29.94,ESE,112,2.3,2.3,58,0.00,CLR,,0.00,WeatherDisplay:10.37,2013-03-03 20:07:00,
2013-03-03 14:08:00,42.3,28.1,29.94,SSE,150,4.0,4.0,57,0.00,CLR,,0.00,WeatherDisplay:10.37,2013-03-03 20:08:00,
2013-03-03 14:09:00,42.3,27.7,29.94,East,87,6.9,6.9,56,0.00,CLR,,0.00,WeatherDisplay:10.37,2013-03-03 20:09:00,
2013-03-03 14:12:00,42.3,28.1,29.94,South,171,2.3,2.3,57,0.00,CLR,,0.00,WeatherDisplay:10.37,2013-03-03 20:12:00,
2013-03-03 14:13:00,42.3,28.1,29.94,South,169,4.0,4.0,57,0.00,CLR,,0.00,WeatherDisplay:10.37,2013-03-03 20:13:00,
2013-03-03 14:14:00,42.2,27.6,29.94,SE,144,9.2,9.2,56,0.00,CLR,,0.00,WeatherDisplay:10.37,2013-03-03 20:14:00,
2013-03-03 14:17:00,42.2,27.6,29.94,SE,134,4.6,4.6,56,0.00,CLR,,0.00,WeatherDisplay:10.37,2013-03-03 20:17:00,
2013-03-03 14:18:00,42.2,27.6,29.94,SE,131,3.5,3.5,56,0.00,CLR,,0.00,WeatherDisplay:10.37,2013-03-03 20:18:00,
2013-03-03 14:20:00,42.3,27.7,29.94,South,183,6.0,6.0,56,0.00,CLR,,0.00,WeatherDisplay:10.37,2013-03-03 20:20:00,
2013-03-03 14:22:00,42.2,27.6,29.94,East,82,5.8,5.8,56,0.00,CLR,,0.00,WeatherDisplay:10.37,2013-03-03 20:22:00,
2013-03-03 14:23:00,42.2,27.6,29.94,SSE,167,5.8,5.8,56,0.00,CLR,,0.00,WeatherDisplay:10.37,2013-03-03 20:23:00,
2013-03-03 14:25:00,42.4,27.8,29.94,East,92,4.6,4.6,56,0.00,CLR,,0.00,WeatherDisplay:10.37,2013-03-03 20:25:00,
2013-03-03 14:27:00,42.5,27.5,29.94,SE,135,4.6,4.6,55,0.00,CLR,,0.00,WeatherDisplay:10.37,2013-03-03 20:27:00,
2013-03-03 14:28:00,42.5,27.5,29.94,East,92,4.6,4.6,55,0.00,CLR,,0.00,WeatherDisplay:10.37,2013-03-03 20:28:00,
2013-03-03 14:29:00,42.5,27.9,29.93,SE,133,3.5,3.5,56,0.00,CLR,,0.00,WeatherDisplay:10.37,2013-03-03 20:29:00,
2013-03-03 14:31:00,42.5,27.9,29.94,ENE,74,1.2,1.2,56,0.00,CLR,,0.00,WeatherDisplay:10.37,2013-03-03 20:31:00,
2013-03-03 14:33:00,42.5,27.5,29.94,SE,130,3.5,3.5,55,0.00,CLR,,0.00,WeatherDisplay:10.37,2013-03-03 20:33:00,
2013-03-03 14:34:00,42.4,27.8,29.94,ESE,107,3.5,3.5,56,0.00,CLR,,0.00,WeatherDisplay:10.37,2013-03-03 20:34:00,
2013-03-03 14:36:00,42.3,27.7,29.94,ESE,117,2.3,2.3,56,0.00,CLR,,0.00,WeatherDisplay:10.37,2013-03-03 20:36:00,
2013-03-03 14:38:00,42.3,27.7,29.93,ENE,65,3.5,3.5,56,0.00,CLR,,0.00,WeatherDisplay:10.37,2013-03-03 20:38:00,
2013-03-03 14:39:00,42.3,27.7,29.93,SE,145,6.9,6.9,56,0.00,CLR,,0.00,WeatherDisplay:10.37,2013-03-03 20:39:00,
2013-03-03 14:41:00,42.3,27.7,29.93,SE,134,3.5,3.5,56,0.00,CLR,,0.00,WeatherDisplay:10.37,2013-03-03 20:41:00,
2013-03-03 14:43:00,42.4,27.8,29.93,ESE,119,7.0,7.0,56,0.00,CLR,,0.00,WeatherDisplay:10.37,2013-03-03 20:43:00,
2013-03-03 14:44:00,42.5,27.9,29.93,SE,128,8.1,8.1,56,0.00,CLR,,0.00,WeatherDisplay:10.37,2013-03-03 20:44:00,
2013-03-03 14:46:00,42.6,28.0,29.93,East,97,3.5,3.5,56,0.00,CLR,,0.00,WeatherDisplay:10.37,2013-03-03 20:46:00,
2013-03-03 14:48:00,43.0,28.8,29.92,East,101,2.0,2.0,57,0.00,CLR,,0.00,WeatherDisplay:10.37,2013-03-03 20:48:00,
2013-03-03 14:49:00,43.2,28.5,29.92,SE,140,3.5,3.5,56,0.00,CLR,,0.00,WeatherDisplay:10.37,2013-03-03 20:49:00,
2013-03-03 14:52:00,43.6,28.0,29.92,ESE,111,3.5,3.5,54,0.00,CLR,,0.00,WeatherDisplay:10.37,2013-03-03 20:52:00,
2013-03-03 14:53:00,43.8,28.7,29.92,East,90,1.2,0.0,55,0.00,CLR,,0.00,WeatherDisplay:10.37,2013-03-03 20:53:00,
2013-03-03 14:54:00,44.0,28.4,29.92,East,91,1.2,1.2,54,0.00,CLR,,0.00,WeatherDisplay:10.37,2013-03-03 20:54:00,
2013-03-03 14:55:00,44.1,28.9,29.92,ESE,114,2.3,2.3,55,0.00,CLR,,0.00,WeatherDisplay:10.37,2013-03-03 20:55:00,
2013-03-03 14:57:00,44.4,28.3,29.93,SE,142,8.1,8.1,53,0.00,CLR,,0.00,WeatherDisplay:10.37,2013-03-03 20:57:00,
2013-03-03 14:58:00,44.1,28.0,29.93,SE,132,8.1,8.1,53,0.00,CLR,,0.00,WeatherDisplay:10.37,2013-03-03 20:58:00,
2013-03-03 14:59:00,43.9,27.9,29.93,SSE,160,8.1,8.1,53,0.00,CLR,,0.00,WeatherDisplay:10.37,2013-03-03 20:59:00,
2013-03-03 15:00:00,43.7,28.1,29.92,SSE,147,6.9,6.9,54,0.00,CLR,,0.00,WeatherDisplay:10.37,2013-03-03 21:00:00,
2013-03-03 15:02:00,43.4,27.8,29.92,South,180,9.2,9.2,54,0.00,CLR,,0.00,WeatherDisplay:10.37,2013-03-03 21:02:00,
2013-03-03 15:03:00,43.2,28.5,29.92,SE,144,2.3,2.3,56,0.00,CLR,,0.00,WeatherDisplay:10.37,2013-03-03 21:03:00,
2013-03-03 15:04:00,43.1,28.0,29.92,South,173,8.0,8.0,55,0.00,CLR,,0.00,WeatherDisplay:10.37,2013-03-03 21:04:00,
2013-03-03 15:05:00,43.1,27.6,29.92,SSW,197,8.1,8.1,54,0.00,CLR,,0.00,WeatherDisplay:10.37,2013-03-03 21:05:00,
2013-03-03 15:07:00,43.1,28.0,29.92,East,95,4.6,4.6,55,0.00,CLR,,0.00,WeatherDisplay:10.37,2013-03-03 21:07:00,
2013-03-03 15:08:00,43.2,28.1,29.92,SSE,153,5.8,5.8,55,0.00,CLR,,0.00,WeatherDisplay:10.37,2013-03-03 21:08:00,
2013-03-03 15:10:00,43.1,28.0,29.92,ENE,60,13.8,13.8,55,0.00,CLR,,0.00,WeatherDisplay:10.37,2013-03-03 21:10:00,
2013-03-03 15:12:00,43.2,28.1,29.92,ENE,76,6.9,6.9,55,0.00,CLR,,0.00,WeatherDisplay:10.37,2013-03-03 21:12:00,
2013-03-03 15:13:00,43.3,28.2,29.86,North,5,1.2,1.2,55,0.00,CLR,,0.00,WeatherDisplay:10.37,2013-03-03 21:13:00,
2013-03-03 15:15:00,43.4,28.3,29.86,SSE,160,4.0,4.0,55,0.00,CLR,,0.00,WeatherDisplay:10.37,2013-03-03 21:15:00,
2013-03-03 15:17:00,43.6,28.5,29.86,ESE,113,3.5,3.5,55,0.00,CLR,,0.00,WeatherDisplay:10.37,2013-03-03 21:17:00,
2013-03-03 15:19:00,43.8,28.7,29.85,SE,134,4.0,4.0,55,0.00,CLR,,0.00,WeatherDisplay:10.37,2013-03-03 21:19:00,
2013-03-03 15:20:00,44.0,28.4,29.85,SE,135,3.5,3.5,54,0.00,CLR,,0.00,WeatherDisplay:10.37,2013-03-03 21:20:00,
2013-03-03 15:22:00,44.0,28.4,29.85,SE,140,6.9,6.9,54,0.00,CLR,,0.00,WeatherDisplay:10.37,2013-03-03 21:22:00,
2013-03-03 15:24:00,43.8,28.2,29.86,SE,144,4.6,4.6,54,0.00,CLR,,0.00,WeatherDisplay:10.37,2013-03-03 21:24:00,
2013-03-03 15:25:00,43.8,28.2,29.86,SE,138,3.5,3.5,54,0.00,CLR,,0.00,WeatherDisplay:10.37,2013-03-03 21:25:00,
2013-03-03 15:27:00,43.8,28.7,29.86,WSW,246,3.5,3.5,55,0.00,CLR,,0.00,WeatherDisplay:10.37,2013-03-03 21:27:00,
2013-03-03 15:29:00,43.7,28.6,29.86,SSE,147,2.0,7.0,55,0.00,CLR,,0.00,WeatherDisplay:10.37,2013-03-03 21:29:00,
2013-03-03 15:30:00,43.6,28.5,29.86,SSE,155,3.5,3.5,55,0.00,CLR,,0.00,WeatherDisplay:10.37,2013-03-03 21:30:00,
2013-03-03 15:31:00,43.6,28.5,29.86,SSE,155,3.5,3.5,55,0.00,CLR,,0.00,WeatherDisplay:10.37,2013-03-03 21:31:00,
2013-03-03 15:32:00,43.3,28.2,29.86,SE,140,4.6,4.6,55,0.00,CLR,,0.00,WeatherDisplay:10.37,2013-03-03 21:32:00,
2013-03-03 15:35:00,43.1,28.0,29.85,SE,128,6.9,6.9,55,0.00,CLR,,0.00,WeatherDisplay:10.37,2013-03-03 21:35:00,
2013-03-03 15:36:00,43.1,28.0,29.85,ENE,77,3.5,3.5,55,0.00,CLR,,0.00,WeatherDisplay:10.37,2013-03-03 21:36:00,
2013-03-03 15:37:00,43.0,28.4,29.85,East,91,2.3,2.3,56,0.00,CLR,,0.00,WeatherDisplay:10.37,2013-03-03 21:37:00,
2013-03-03 15:40:00,42.8,28.2,29.85,SSE,148,4.6,4.6,56,0.00,CLR,,0.00,WeatherDisplay:10.37,2013-03-03 21:40:00,
2013-03-03 15:41:00,42.8,28.6,29.85,SSE,155,4.6,4.6,57,0.00,CLR,,0.00,WeatherDisplay:10.37,2013-03-03 21:41:00,
2013-03-03 15:42:00,42.9,28.7,29.85,SSE,153,6.0,6.0,57,0.00,CLR,,0.00,WeatherDisplay:10.37,2013-03-03 21:42:00,
2013-03-03 15:45:00,42.9,28.3,29.85,SE,144,6.9,6.9,56,0.00,CLR,,0.00,WeatherDisplay:10.37,2013-03-03 21:45:00,
2013-03-03 15:46:00,42.8,28.2,29.85,South,178,6.9,6.9,56,0.00,CLR,,0.00,WeatherDisplay:10.37,2013-03-03 21:46:00,
2013-03-03 15:47:00,42.7,28.5,29.85,SSE,162,5.8,5.8,57,0.00,CLR,,0.00,WeatherDisplay:10.37,2013-03-03 21:47:00,
2013-03-03 15:50:00,42.7,28.5,29.86,South,178,4.6,4.6,57,0.00,CLR,,0.00,WeatherDisplay:10.37,2013-03-03 21:50:00,
2013-03-03 15:51:00,42.6,28.4,29.85,SE,132,3.5,3.5,57,0.00,CLR,,0.00,WeatherDisplay:10.37,2013-03-03 21:51:00,
2013-03-03 15:52:00,42.7,28.1,29.85,SSE,148,3.5,3.5,56,0.00,CLR,,0.00,WeatherDisplay:10.37,2013-03-03 21:52:00,
2013-03-03 15:55:00,42.7,28.1,29.85,SSE,156,3.5,3.5,56,0.00,CLR,,0.00,WeatherDisplay:10.37,2013-03-03 21:55:00,
2013-03-03 15:56:00,42.7,28.1,29.85,SSE,151,3.5,3.5,56,0.00,CLR,,0.00,WeatherDisplay:10.37,2013-03-03 21:56:00,
2013-03-03 15:58:00,42.7,28.1,29.85,East,90,3.5,3.5,56,0.00,CLR,,0.00,WeatherDisplay:10.37,2013-03-03 21:58:00,
2013-03-03 16:00:00,42.7,28.5,29.85,East,88,3.5,3.5,57,0.00,CLR,,0.00,WeatherDisplay:10.37,2013-03-03 22:00:00,
2013-03-03 16:01:00,42.7,28.1,29.85,East,81,5.8,5.8,56,0.00,CLR,,0.00,WeatherDisplay:10.37,2013-03-03 22:01:00,
2013-03-03 16:03:00,42.7,28.1,29.85,SSE,162,4.0,4.0,56,0.00,CLR,,0.00,WeatherDisplay:10.37,2013-03-03 22:03:00,
2013-03-03 16:05:00,42.6,28.4,29.85,ESE,104,2.3,2.3,57,0.00,CLR,,0.00,WeatherDisplay:10.37,2013-03-03 22:05:00,
2013-03-03 16:07:00,42.5,28.3,29.86,ESE,105,2.3,0.0,57,0.00,CLR,,0.00,WeatherDisplay:10.37,2013-03-03 22:07:00,
2013-03-03 16:08:00,42.6,28.4,29.85,SE,127,1.0,1.0,57,0.00,CLR,,0.00,WeatherDisplay:10.37,2013-03-03 22:08:00,
2013-03-03 16:11:00,42.6,28.4,29.85,SE,140,3.5,3.5,57,0.00,CLR,,0.00,WeatherDisplay:10.37,2013-03-03 22:11:00,
2013-03-03 16:12:00,42.6,28.8,29.85,East,84,3.5,3.5,58,0.00,CLR,,0.00,WeatherDisplay:10.37,2013-03-03 22:12:00,
2013-03-03 16:13:00,42.5,28.3,29.86,ESE,113,3.5,3.5,57,0.00,CLR,,0.00,WeatherDisplay:10.37,2013-03-03 22:13:00,
2013-03-03 16:16:00,42.5,28.8,29.85,NE,41,3.5,3.5,58,0.00,CLR,,0.00,WeatherDisplay:10.37,2013-03-03 22:16:00,
2013-03-03 16:17:00,42.5,28.3,29.85,SE,134,4.0,4.0,57,0.00,CLR,,0.00,WeatherDisplay:10.37,2013-03-03 22:17:00,
2013-03-03 16:18:00,42.5,28.3,29.85,SE,132,5.0,5.0,57,0.00,CLR,,0.00,WeatherDisplay:10.37,2013-03-03 22:18:00,
2013-03-03 16:21:00,42.5,28.3,29.85,East,93,3.0,3.0,57,0.00,CLR,,0.00,WeatherDisplay:10.37,2013-03-03 22:21:00,
2013-03-03 16:22:00,42.5,28.3,29.85,NE,54,2.3,2.3,57,0.00,CLR,,0.00,WeatherDisplay:10.37,2013-03-03 22:22:00,
2013-03-03 16:23:00,42.5,28.3,29.85,NE,54,2.3,2.3,57,0.00,CLR,,0.00,WeatherDisplay:10.37,2013-03-03 22:23:00,
2013-03-03 16:26:00,42.5,28.3,29.85,East,93,2.0,2.0,57,0.00,CLR,,0.00,WeatherDisplay:10.37,2013-03-03 22:26:00,
2013-03-03 16:27:00,42.6,28.4,29.85,NNE,32,3.5,3.5,57,0.00,CLR,,0.00,WeatherDisplay:10.37,2013-03-03 22:27:00,
2013-03-03 16:28:00,42.6,28.4,29.85,ESE,107,3.5,3.5,57,0.00,CLR,,0.00,WeatherDisplay:10.37,2013-03-03 22:28:00,
2013-03-03 16:29:00,42.6,28.8,29.85,NNE,24,3.0,3.0,58,0.00,CLR,,0.00,WeatherDisplay:10.37,2013-03-03 22:29:00,
2013-03-03 16:31:00,42.5,28.3,29.85,East,80,3.5,3.5,57,0.00,CLR,,0.00,WeatherDisplay:10.37,2013-03-03 22:31:00,
2013-03-03 16:33:00,42.4,28.7,29.85,East,100,4.6,4.6,58,0.00,CLR,,0.00,WeatherDisplay:10.37,2013-03-03 22:33:00,
2013-03-03 16:34:00,42.3,28.6,29.85,SSE,159,4.6,4.6,58,0.00,CLR,,0.00,WeatherDisplay:10.37,2013-03-03 22:34:00,
2013-03-03 16:36:00,42.2,28.0,29.85,ENE,58,2.3,2.3,57,0.00,CLR,,0.00,WeatherDisplay:10.37,2013-03-03 22:36:00,
2013-03-03 16:38:00,42.2,28.5,29.85,ESE,115,3.5,3.5,58,0.00,CLR,,0.00,WeatherDisplay:10.37,2013-03-03 22:38:00,
2013-03-03 16:39:00,42.2,28.5,29.85,SE,126,1.2,1.2,58,0.00,CLR,,0.00,WeatherDisplay:10.37,2013-03-03 22:39:00,
2013-03-03 16:42:00,42.2,28.5,29.85,SSE,162,3.5,3.5,58,0.00,CLR,,0.00,WeatherDisplay:10.37,2013-03-03 22:42:00,
2013-03-03 16:43:00,42.1,28.8,29.85,ENE,78,2.3,2.3,59,0.00,CLR,,0.00,WeatherDisplay:10.37,2013-03-03 22:43:00,
2013-03-03 16:44:00,42.1,28.8,29.85,East,84,1.2,1.2,59,0.00,CLR,,0.00,WeatherDisplay:10.37,2013-03-03 22:44:00,
2013-03-03 16:47:00,42.1,28.8,29.85,East,92,2.3,2.3,59,0.00,CLR,,0.00,WeatherDisplay:10.37,2013-03-03 22:47:00,
2013-03-03 16:48:00,42.1,28.8,29.85,East,90,3.5,3.5,59,0.00,CLR,,0.00,WeatherDisplay:10.37,2013-03-03 22:48:00,
2013-03-03 16:49:00,42.0,28.7,29.85,ESE,108,2.3,2.3,59,0.00,CLR,,0.00,WeatherDisplay:10.37,2013-03-03 22:49:00,
2013-03-03 16:52:00,41.9,28.6,29.85,East,96,3.5,3.5,59,0.00,CLR,,0.00,WeatherDisplay:10.37,2013-03-03 22:52:00,
2013-03-03 16:53:00,41.9,28.6,29.85,ESE,114,1.2,1.2,59,0.00,CLR,,0.00,WeatherDisplay:10.37,2013-03-03 22:53:00,
2013-03-03 16:54:00,41.8,28.5,29.85,SE,140,2.3,2.3,59,0.00,CLR,,0.00,WeatherDisplay:10.37,2013-03-03 22:54:00,
2013-03-03 16:57:00,41.8,28.5,29.84,ESE,119,2.3,2.3,59,0.00,CLR,,0.00,WeatherDisplay:10.37,2013-03-03 22:57:00,
2013-03-03 16:59:00,41.7,28.8,29.84,SE,129,3.5,3.5,60,0.00,CLR,,0.00,WeatherDisplay:10.37,2013-03-03 22:59:00,
2013-03-03 17:02:00,41.6,28.7,29.84,ESE,109,2.3,2.3,60,0.00,CLR,,0.00,WeatherDisplay:10.37,2013-03-03 23:02:00,
2013-03-03 17:04:00,41.5,28.6,29.84,East,94,3.0,3.0,60,0.00,CLR,,0.00,WeatherDisplay:10.37,2013-03-03 23:04:00,
2013-03-03 17:07:00,41.5,28.6,29.84,SE,141,8.1,8.1,60,0.00,CLR,,0.00,WeatherDisplay:10.37,2013-03-03 23:07:00,
2013-03-03 17:09:00,41.5,28.6,29.84,ESE,109,3.5,3.5,60,0.00,CLR,,0.00,WeatherDisplay:10.37,2013-03-03 23:09:00,
2013-03-03 17:12:00,41.4,28.5,29.84,ESE,121,3.5,3.5,60,0.00,CLR,,0.00,WeatherDisplay:10.37,2013-03-03 23:12:00,
2013-03-03 17:14:00,41.4,28.5,29.84,NNE,30,3.5,3.5,60,0.00,CLR,,0.00,WeatherDisplay:10.37,2013-03-03 23:14:00,
2013-03-03 17:15:00,41.4,28.5,29.84,East,82,3.5,3.5,60,0.00,CLR,,0.00,WeatherDisplay:10.37,2013-03-03 23:15:00,
2013-03-03 17:17:00,41.4,28.5,29.84,East,91,2.3,0.0,60,0.00,CLR,,0.00,WeatherDisplay:10.37,2013-03-03 23:17:00,
2013-03-03 17:19:00,41.3,28.4,29.84,ESE,117,2.0,2.0,60,0.00,CLR,,0.00,WeatherDisplay:10.37,2013-03-03 23:19:00,
2013-03-03 17:20:00,41.3,28.4,29.84,ESE,105,3.5,3.5,60,0.00,CLR,,0.00,WeatherDisplay:10.37,2013-03-03 23:20:00,
2013-03-03 17:22:00,41.3,28.4,29.84,ESE,107,3.5,3.5,60,0.00,CLR,,0.00,WeatherDisplay:10.37,2013-03-03 23:22:00,
2013-03-03 17:24:00,41.3,28.0,29.84,ESE,119,2.3,2.3,59,0.00,CLR,,0.00,WeatherDisplay:10.37,2013-03-03 23:24:00,
2013-03-03 17:25:00,41.3,28.0,29.84,ESE,119,2.3,2.3,59,0.00,CLR,,0.00,WeatherDisplay:10.37,2013-03-03 23:25:00,
2013-03-03 17:27:00,41.2,28.4,29.84,SE,130,3.5,3.5,60,0.00,CLR,,0.00,WeatherDisplay:10.37,2013-03-03 23:27:00,
2013-03-03 17:29:00,41.2,28.4,29.84,ENE,74,4.6,4.6,60,0.00,CLR,,0.00,WeatherDisplay:10.37,2013-03-03 23:29:00,
2013-03-03 17:30:00,41.2,28.4,29.84,ENE,76,4.6,4.6,60,0.00,CLR,,0.00,WeatherDisplay:10.37,2013-03-03 23:30:00,
2013-03-03 17:33:00,41.2,28.4,29.84,ESE,109,2.3,2.3,60,0.00,CLR,,0.00,WeatherDisplay:10.37,2013-03-03 23:33:00,
2013-03-03 17:35:00,41.1,27.9,29.84,NE,46,3.5,3.5,59,0.00,CLR,,0.00,WeatherDisplay:10.37,2013-03-03 23:35:00,
2013-03-03 17:38:00,41.1,28.3,29.83,East,80,4.6,4.6,60,0.00,CLR,,0.00,WeatherDisplay:10.37,2013-03-03 23:38:00,
2013-03-03 17:40:00,41.0,28.6,29.83,ESE,108,3.0,3.0,61,0.00,CLR,,0.00,WeatherDisplay:10.37,2013-03-03 23:40:00,
2013-03-03 17:43:00,40.9,28.1,29.83,SE,140,2.3,2.3,60,0.00,CLR,,0.00,WeatherDisplay:10.37,2013-03-03 23:43:00,
2013-03-03 17:45:00,40.8,28.0,29.83,East,81,5.8,5.8,60,0.00,CLR,,0.00,WeatherDisplay:10.37,2013-03-03 23:45:00,
2013-03-03 17:48:00,40.7,27.9,29.83,SE,140,6.9,6.9,60,0.00,CLR,,0.00,WeatherDisplay:10.37,2013-03-03 23:48:00,
2013-03-03 17:50:00,40.6,27.8,29.83,East,91,3.5,3.5,60,0.00,CLR,,0.00,WeatherDisplay:10.37,2013-03-03 23:50:00,
2013-03-03 17:53:00,40.5,28.1,29.83,ENE,71,4.6,4.6,61,0.00,CLR,,0.00,WeatherDisplay:10.37,2013-03-03 23:53:00,
2013-03-03 17:55:00,40.4,28.0,29.83,ESE,123,3.5,3.5,61,0.00,CLR,,0.00,WeatherDisplay:10.37,2013-03-03 23:55:00,
2013-03-03 17:56:00,40.4,28.0,29.83,ESE,103,4.6,4.6,61,0.00,CLR,,0.00,WeatherDisplay:10.37,2013-03-03 23:56:00,
2013-03-03 17:58:00,40.4,28.0,29.83,SE,128,5.0,5.0,61,0.00,CLR,,0.00,WeatherDisplay:10.37,2013-03-03 23:58:00,
2013-03-03 18:00:00,40.4,27.6,29.83,East,86,3.5,3.5,60,0.00,CLR,,0.00,WeatherDisplay:10.37,2013-03-04 00:00:00,
2013-03-03 18:01:00,40.4,27.6,29.83,ESE,106,4.6,4.6,60,0.00,CLR,,0.00,WeatherDisplay:10.37,2013-03-04 00:01:00,
2013-03-03 18:03:00,40.4,28.0,29.83,East,83,3.5,3.5,61,0.00,CLR,,0.00,WeatherDisplay:10.37,2013-03-04 00:03:00,
2013-03-03 18:05:00,40.3,27.9,29.82,NE,51,3.5,3.5,61,0.00,CLR,,0.00,WeatherDisplay:10.37,2013-03-04 00:05:00,
2013-03-03 18:06:00,40.3,27.9,29.82,ESE,119,3.5,3.5,61,0.00,CLR,,0.00,WeatherDisplay:10.37,2013-03-04 00:06:00,
2013-03-03 18:08:00,40.3,27.9,29.82,East,96,5.8,5.8,61,0.00,CLR,,0.00,WeatherDisplay:10.37,2013-03-04 00:08:00,
2013-03-03 18:11:00,40.2,27.4,29.82,East,92,4.6,4.6,60,0.00,CLR,,0.00,WeatherDisplay:10.37,2013-03-04 00:11:00,
2013-03-03 18:14:00,40.2,27.8,29.82,East,90,3.0,3.0,61,0.00,CLR,,0.00,WeatherDisplay:10.37,2013-03-04 00:14:00,
2013-03-03 18:16:00,40.2,28.2,29.82,East,95,2.3,2.3,62,0.00,CLR,,0.00,WeatherDisplay:10.37,2013-03-04 00:16:00,
2013-03-03 18:19:00,40.0,27.6,29.82,ESE,116,2.3,2.3,61,0.00,CLR,,0.00,WeatherDisplay:10.37,2013-03-04 00:19:00,
2013-03-03 18:21:00,40.1,27.7,29.82,ESE,103,4.6,4.6,61,0.00,CLR,,0.00,WeatherDisplay:10.37,2013-03-04 00:21:00,
2013-03-03 18:24:00,40.0,28.0,29.81,East,83,2.3,2.3,62,0.00,CLR,,0.00,WeatherDisplay:10.37,2013-03-04 00:24:00,
2013-03-03 18:26:00,39.9,28.3,29.81,East,97,1.2,1.2,63,0.00,CLR,,0.00,WeatherDisplay:10.37,2013-03-04 00:26:00,
2013-03-03 18:27:00,39.9,27.9,29.81,East,95,2.3,2.3,62,0.00,CLR,,0.00,WeatherDisplay:10.37,2013-03-04 00:27:00,
2013-03-03 18:29:00,39.8,28.2,29.81,East,92,3.5,3.5,63,0.00,CLR,,0.00,WeatherDisplay:10.37,2013-03-04 00:29:00,
2013-03-03 18:31:00,39.8,27.8,29.81,ENE,63,2.3,2.3,62,0.00,CLR,,0.00,WeatherDisplay:10.37,2013-03-04 00:31:00,
2013-03-03 18:32:00,39.8,27.8,29.81,ESE,103,4.6,4.6,62,0.00,CLR,,0.00,WeatherDisplay:10.37,2013-03-04 00:32:00,
2013-03-03 18:34:00,39.9,27.9,29.81,ENE,72,3.5,3.5,62,0.00,CLR,,0.00,WeatherDisplay:10.37,2013-03-04 00:34:00,
2013-03-03 18:36:00,39.9,27.9,29.81,South,189,4.6,4.6,62,0.00,CLR,,0.00,WeatherDisplay:10.37,2013-03-04 00:36:00,
2013-03-03 18:37:00,39.9,27.9,29.81,East,92,3.5,3.5,62,0.00,CLR,,0.00,WeatherDisplay:10.37,2013-03-04 00:37:00,
2013-03-03 18:39:00,40.0,27.6,29.81,East,82,3.5,3.5,61,0.00,CLR,,0.00,WeatherDisplay:10.37,2013-03-04 00:39:00,
2013-03-03 18:41:00,40.0,28.0,29.81,ESE,112,3.5,3.5,62,0.00,CLR,,0.00,WeatherDisplay:10.37,2013-03-04 00:41:00,
2013-03-03 18:42:00,40.0,28.0,29.81,ESE,112,3.5,3.5,62,0.00,CLR,,0.00,WeatherDisplay:10.37,2013-03-04 00:42:00,
2013-03-03 18:44:00,40.0,28.0,29.81,ESE,105,3.5,3.5,62,0.00,CLR,,0.00,WeatherDisplay:10.37,2013-03-04 00:44:00,
2013-03-03 18:47:00,40.0,27.6,29.81,SSE,150,3.5,3.5,61,0.00,CLR,,0.00,WeatherDisplay:10.37,2013-03-04 00:47:00,
2013-03-03 18:50:00,40.0,28.0,29.81,SSE,153,3.5,3.5,62,0.00,CLR,,0.00,WeatherDisplay:10.37,2013-03-04 00:50:00,
2013-03-03 18:52:00,40.0,28.0,29.81,SE,124,3.5,3.5,62,0.00,CLR,,0.00,WeatherDisplay:10.37,2013-03-04 00:52:00,
2013-03-03 18:55:00,39.9,27.9,29.80,ESE,115,2.3,2.3,62,0.00,CLR,,0.00,WeatherDisplay:10.37,2013-03-04 00:55:00,
2013-03-03 18:57:00,39.9,27.9,29.80,ESE,103,5.8,5.8,62,0.00,CLR,,0.00,WeatherDisplay:10.37,2013-03-04 00:57:00,
2013-03-03 19:00:00,39.9,27.9,29.81,SSE,148,3.5,3.5,62,0.00,CLR,,0.00,WeatherDisplay:10.37,2013-03-04 01:00:00,
2013-03-03 19:02:00,40.0,28.0,29.81,East,92,5.8,5.8,62,0.00,CLR,,0.00,WeatherDisplay:10.37,2013-03-04 01:02:00,
2013-03-03 19:05:00,40.0,28.0,29.80,East,100,3.5,3.5,62,0.00,CLR,,0.00,WeatherDisplay:10.37,2013-03-04 01:05:00,
2013-03-03 19:07:00,40.1,27.7,29.81,East,101,4.6,4.6,61,0.00,CLR,,0.00,WeatherDisplay:10.37,2013-03-04 01:07:00,
2013-03-03 19:08:00,40.1,27.7,29.81,ESE,117,3.5,3.5,61,0.00,CLR,,0.00,WeatherDisplay:10.37,2013-03-04 01:08:00,
2013-03-03 19:10:00,40.1,28.1,29.81,SE,131,3.0,3.0,62,0.00,CLR,,0.00,WeatherDisplay:10.37,2013-03-04 01:10:00,
2013-03-03 19:12:00,40.1,28.1,29.81,SE,128,4.0,4.0,62,0.00,CLR,,0.00,WeatherDisplay:10.37,2013-03-04 01:12:00,
2013-03-03 19:13:00,40.1,28.1,29.81,SSE,156,4.6,4.6,62,0.00,CLR,,0.00,WeatherDisplay:10.37,2013-03-04 01:13:00,
2013-03-03 19:15:00,40.1,28.1,29.81,East,101,3.5,3.5,62,0.00,CLR,,0.00,WeatherDisplay:10.37,2013-03-04 01:15:00,
2013-03-03 19:17:00,40.1,28.1,29.81,SSE,148,2.3,2.3,62,0.00,CLR,,0.00,WeatherDisplay:10.37,2013-03-04 01:17:00,
2013-03-03 19:18:00,40.1,28.1,29.81,North,11,3.0,3.0,62,0.00,CLR,,0.00,WeatherDisplay:10.37,2013-03-04 01:18:00,
2013-03-03 19:20:00,40.1,28.1,29.81,East,80,3.5,3.5,62,0.00,CLR,,0.00,WeatherDisplay:10.37,2013-03-04 01:20:00,
2013-03-03 19:23:00,40.1,28.1,29.81,ESE,121,2.3,2.3,62,0.00,CLR,,0.00,WeatherDisplay:10.37,2013-03-04 01:23:00,
2013-03-03 19:25:00,40.1,28.1,29.82,SE,138,2.0,2.0,62,0.00,CLR,,0.00,WeatherDisplay:10.37,2013-03-04 01:25:00,
2013-03-03 19:28:00,40.1,28.1,29.82,ENE,78,3.5,3.5,62,0.00,CLR,,0.00,WeatherDisplay:10.37,2013-03-04 01:28:00,
2013-03-03 19:30:00,40.2,28.2,29.83,SE,124,3.5,3.5,62,0.00,CLR,,0.00,WeatherDisplay:10.37,2013-03-04 01:30:00,
2013-03-03 19:33:00,40.2,27.8,29.83,NE,47,3.5,3.5,61,0.00,CLR,,0.00,WeatherDisplay:10.37,2013-03-04 01:33:00,
2013-03-03 19:34:00,40.2,27.8,29.83,ESE,113,3.5,3.5,61,0.00,CLR,,0.00,WeatherDisplay:10.37,2013-03-04 01:34:00,
2013-03-03 19:35:00,40.2,27.8,29.83,SSE,149,4.0,4.0,61,0.00,CLR,,0.00,WeatherDisplay:10.37,2013-03-04 01:35:00,
2013-03-03 19:38:00,40.2,28.2,29.83,East,94,3.5,3.5,62,0.00,CLR,,0.00,WeatherDisplay:10.37,2013-03-04 01:38:00,
2013-03-03 19:39:00,40.1,28.1,29.83,ESE,108,3.0,3.0,62,0.00,CLR,,0.00,WeatherDisplay:10.37,2013-03-04 01:39:00,
2013-03-03 19:40:00,40.0,28.0,29.83,East,90,3.5,3.5,62,0.00,CLR,,0.00,WeatherDisplay:10.37,2013-03-04 01:40:00,
2013-03-03 19:43:00,40.0,28.0,29.83,East,98,3.5,3.5,62,0.00,CLR,,0.00,WeatherDisplay:10.37,2013-03-04 01:43:00,
2013-03-03 19:44:00,40.0,28.0,29.83,SW,221,3.5,3.5,62,0.00,CLR,,0.00,WeatherDisplay:10.37,2013-03-04 01:44:00,
2013-03-03 19:46:00,40.0,28.0,29.82,East,89,11.5,11.5,62,0.00,CLR,,0.00,WeatherDisplay:10.37,2013-03-04 01:46:00,
2013-03-03 19:48:00,40.0,28.0,29.82,ESE,115,4.6,4.6,62,0.00,CLR,,0.00,WeatherDisplay:10.37,2013-03-04 01:48:00,
2013-03-03 19:49:00,39.9,27.9,29.82,ENE,78,3.5,3.5,62,0.00,CLR,,0.00,WeatherDisplay:10.37,2013-03-04 01:49:00,
2013-03-03 19:51:00,39.9,27.9,29.82,East,101,3.5,3.5,62,0.00,CLR,,0.00,WeatherDisplay:10.37,2013-03-04 01:51:00,
2013-03-03 19:53:00,39.9,27.9,29.82,NE,34,6.9,6.9,62,0.00,CLR,,0.00,WeatherDisplay:10.37,2013-03-04 01:53:00,
2013-03-03 19:54:00,39.9,27.9,29.82,SSE,153,6.9,6.9,62,0.00,CLR,,0.00,WeatherDisplay:10.37,2013-03-04 01:54:00,
2013-03-03 19:56:00,39.9,27.9,29.81,ESE,115,6.9,6.9,62,0.00,CLR,,0.00,WeatherDisplay:10.37,2013-03-04 01:56:00,
2013-03-03 19:58:00,39.8,27.8,29.81,East,81,3.5,3.5,62,0.00,CLR,,0.00,WeatherDisplay:10.37,2013-03-04 01:58:00,
2013-03-03 19:59:00,39.8,27.8,29.81,East,80,3.5,3.5,62,0.00,CLR,,0.00,WeatherDisplay:10.37,2013-03-04 01:59:00,
2013-03-03 20:01:00,39.7,27.7,29.82,ESE,103,5.8,5.8,62,0.00,CLR,,0.00,WeatherDisplay:10.37,2013-03-04 02:01:00,
2013-03-03 20:04:00,39.7,27.7,29.81,East,93,3.5,3.5,62,0.00,CLR,,0.00,WeatherDisplay:10.37,2013-03-04 02:04:00,
2013-03-03 20:06:00,39.7,27.7,29.81,East,91,4.0,4.0,62,0.00,CLR,,0.00,WeatherDisplay:10.37,2013-03-04 02:06:00,
2013-03-03 20:09:00,39.6,28.0,29.81,ESE,102,2.3,2.3,63,0.00,CLR,,0.00,WeatherDisplay:10.37,2013-03-04 02:09:00,
2013-03-03 20:11:00,39.5,27.9,29.81,East,96,5.8,5.8,63,0.00,CLR,,0.00,WeatherDisplay:10.37,2013-03-04 02:11:00,
2013-03-03 20:14:00,39.5,27.9,29.81,ESE,119,3.5,3.5,63,0.00,CLR,,0.00,WeatherDisplay:10.37,2013-03-04 02:14:00,
2013-03-03 20:16:00,39.5,27.9,29.81,ENE,68,4.6,4.6,63,0.00,CLR,,0.00,WeatherDisplay:10.37,2013-03-04 02:16:00,
2013-03-03 20:19:00,39.5,27.9,29.81,ENE,62,4.0,4.0,63,0.00,CLR,,0.00,WeatherDisplay:10.37,2013-03-04 02:19:00,
2013-03-03 20:20:00,39.5,27.9,29.81,NNE,16,4.6,4.6,63,0.00,CLR,,0.00,WeatherDisplay:10.37,2013-03-04 02:20:00,
2013-03-03 20:21:00,39.5,27.9,29.81,East,88,3.5,3.5,63,0.00,CLR,,0.00,WeatherDisplay:10.37,2013-03-04 02:21:00,
2013-03-03 20:24:00,39.4,28.2,29.81,East,94,2.0,2.0,64,0.00,CLR,,0.00,WeatherDisplay:10.37,2013-03-04 02:24:00,
2013-03-03 20:25:00,39.4,27.8,29.81,ESE,112,4.6,4.6,63,0.00,CLR,,0.00,WeatherDisplay:10.37,2013-03-04 02:25:00,
2013-03-03 20:26:00,39.4,27.8,29.81,SE,146,3.5,3.5,63,0.00,CLR,,0.00,WeatherDisplay:10.37,2013-03-04 02:26:00,
2013-03-03 20:29:00,39.4,28.2,29.81,ESE,116,2.0,4.0,64,0.00,CLR,,0.00,WeatherDisplay:10.37,2013-03-04 02:29:00,
2013-03-03 20:30:00,39.4,27.8,29.81,SSE,159,2.3,2.3,63,0.00,CLR,,0.00,WeatherDisplay:10.37,2013-03-04 02:30:00,
2013-03-03 20:31:00,39.4,27.8,29.81,East,96,4.6,4.6,63,0.00,CLR,,0.00,WeatherDisplay:10.37,2013-03-04 02:31:00,
2013-03-03 20:34:00,39.3,28.1,29.81,SSE,159,3.5,3.5,64,0.00,CLR,,0.00,WeatherDisplay:10.37,2013-03-04 02:34:00,
2013-03-03 20:35:00,39.3,27.7,29.81,SSE,161,3.5,3.5,63,0.00,CLR,,0.00,WeatherDisplay:10.37,2013-03-04 02:35:00,
2013-03-03 20:36:00,39.3,28.1,29.81,SSW,210,2.0,2.0,64,0.00,CLR,,0.00,WeatherDisplay:10.37,2013-03-04 02:36:00,
2013-03-03 20:39:00,39.2,28.0,29.81,East,100,2.3,2.3,64,0.00,CLR,,0.00,WeatherDisplay:10.37,2013-03-04 02:39:00,
2013-03-03 20:40:00,39.1,27.9,29.81,ENE,76,2.3,2.3,64,0.00,CLR,,0.00,WeatherDisplay:10.37,2013-03-04 02:40:00,
2013-03-03 20:41:00,39.1,28.3,29.81,ESE,103,3.5,3.5,65,0.00,CLR,,0.00,WeatherDisplay:10.37,2013-03-04 02:41:00,
2013-03-03 20:42:00,39.1,28.3,29.81,ENE,63,2.0,2.0,65,0.00,CLR,,0.00,WeatherDisplay:10.37,2013-03-04 02:42:00,
2013-03-03 20:45:00,39.1,27.9,29.81,SSE,155,3.5,3.5,64,0.00,CLR,,0.00,WeatherDisplay:10.37,2013-03-04 02:45:00,
2013-03-03 20:46:00,39.0,27.8,29.81,ESE,103,3.5,3.5,64,0.00,CLR,,0.00,WeatherDisplay:10.37,2013-03-04 02:46:00,
2013-03-03 20:47:00,39.1,27.9,29.81,ESE,103,4.0,4.0,64,0.00,CLR,,0.00,WeatherDisplay:10.37,2013-03-04 02:47:00,
2013-03-03 20:50:00,39.1,27.9,29.81,East,96,3.5,3.5,64,0.00,CLR,,0.00,WeatherDisplay:10.37,2013-03-04 02:50:00,
2013-03-03 20:51:00,39.1,27.9,29.81,ESE,105,6.9,6.9,64,0.00,CLR,,0.00,WeatherDisplay:10.37,2013-03-04 02:51:00,
2013-03-03 20:52:00,39.1,27.9,29.81,SE,144,6.9,6.9,64,0.00,CLR,,0.00,WeatherDisplay:10.37,2013-03-04 02:52:00,
2013-03-03 20:55:00,39.1,27.9,29.81,SE,132,3.5,3.5,64,0.00,CLR,,0.00,WeatherDisplay:10.37,2013-03-04 02:55:00,
2013-03-03 20:56:00,39.1,28.3,29.81,ENE,57,3.5,3.5,65,0.00,CLR,,0.00,WeatherDisplay:10.37,2013-03-04 02:56:00,
2013-03-03 20:57:00,39.1,27.9,29.81,ENE,71,3.5,3.5,64,0.00,CLR,,0.00,WeatherDisplay:10.37,2013-03-04 02:57:00,
2013-03-03 21:00:00,39.0,28.2,29.81,East,86,3.5,3.5,65,0.00,CLR,,0.00,WeatherDisplay:10.37,2013-03-04 03:00:00,
2013-03-03 21:01:00,38.9,28.1,29.81,SE,141,2.0,2.0,65,0.00,CLR,,0.00,WeatherDisplay:10.37,2013-03-04 03:01:00,
2013-03-03 21:02:00,38.9,28.1,29.81,ESE,109,3.0,3.0,65,0.00,CLR,,0.00,WeatherDisplay:10.37,2013-03-04 03:02:00,
2013-03-03 21:05:00,38.8,28.0,29.81,SE,134,3.5,3.5,65,0.00,CLR,,0.00,WeatherDisplay:10.37,2013-03-04 03:05:00,
2013-03-03 21:06:00,38.8,28.0,29.80,East,98,4.6,4.6,65,0.00,CLR,,0.00,WeatherDisplay:10.37,2013-03-04 03:06:00,
2013-03-03 21:07:00,38.8,28.0,29.81,East,82,2.3,2.3,65,0.00,CLR,,0.00,WeatherDisplay:10.37,2013-03-04 03:07:00,
2013-03-03 21:10:00,38.6,27.8,29.81,ENE,69,3.5,3.5,65,0.00,CLR,,0.00,WeatherDisplay:10.37,2013-03-04 03:10:00,
2013-03-03 21:11:00,38.7,27.9,29.80,SE,128,3.5,3.5,65,0.00,CLR,,0.00,WeatherDisplay:10.37,2013-03-04 03:11:00,
2013-03-03 21:12:00,38.7,27.9,29.80,East,90,3.5,3.5,65,0.00,CLR,,0.00,WeatherDisplay:10.37,2013-03-04 03:12:00,
2013-03-03 21:15:00,38.7,27.9,29.80,ESE,113,3.5,3.5,65,0.00,CLR,,0.00,WeatherDisplay:10.37,2013-03-04 03:15:00,
2013-03-03 21:16:00,38.7,27.9,29.80,SE,143,4.6,4.6,65,0.00,CLR,,0.00,WeatherDisplay:10.37,2013-03-04 03:16:00,
2013-03-03 21:17:00,38.7,27.9,29.80,SSE,147,3.0,3.0,65,0.00,CLR,,0.00,WeatherDisplay:10.37,2013-03-04 03:17:00,
2013-03-03 21:21:00,38.7,27.9,29.80,SE,134,3.5,3.5,65,0.00,CLR,,0.00,WeatherDisplay:10.37,2013-03-04 03:21:00,
2013-03-03 21:22:00,38.7,27.9,29.80,ESE,108,5.8,5.8,65,0.00,CLR,,0.00,WeatherDisplay:10.37,2013-03-04 03:22:00,
2013-03-03 21:26:00,38.7,27.9,29.80,SE,125,5.8,5.8,65,0.00,CLR,,0.00,WeatherDisplay:10.37,2013-03-04 03:26:00,
2013-03-03 21:27:00,38.7,27.9,29.80,ESE,123,3.5,3.5,65,0.00,CLR,,0.00,WeatherDisplay:10.37,2013-03-04 03:27:00,
2013-03-03 21:32:00,38.7,28.3,29.80,ESE,114,3.5,3.5,66,0.00,CLR,,0.00,WeatherDisplay:10.37,2013-03-04 03:32:00,
2013-03-03 21:33:00,38.7,27.9,29.80,ENE,64,2.3,2.3,65,0.00,CLR,,0.00,WeatherDisplay:10.37,2013-03-04 03:33:00,
2013-03-03 21:37:00,38.7,27.9,29.79,ENE,76,3.5,3.5,65,0.00,CLR,,0.00,WeatherDisplay:10.37,2013-03-04 03:37:00,
2013-03-03 21:38:00,38.7,27.9,29.79,East,86,4.6,4.6,65,0.00,CLR,,0.00,WeatherDisplay:10.37,2013-03-04 03:38:00,
2013-03-03 21:42:00,38.7,27.9,29.79,ESE,114,3.5,3.5,65,0.00,CLR,,0.00,WeatherDisplay:10.37,2013-03-04 03:42:00,
2013-03-03 21:43:00,38.7,27.9,29.79,ESE,117,4.6,4.6,65,0.00,CLR,,0.00,WeatherDisplay:10.37,2013-03-04 03:43:00,
2013-03-03 21:47:00,38.8,28.0,29.79,SSE,153,6.9,6.9,65,0.00,CLR,,0.00,WeatherDisplay:10.37,2013-03-04 03:47:00,
2013-03-03 21:48:00,38.8,28.0,29.79,SE,131,3.5,3.5,65,0.00,CLR,,0.00,WeatherDisplay:10.37,2013-03-04 03:48:00,
2013-03-03 21:52:00,38.9,28.1,29.78,ENE,74,4.6,4.6,65,0.00,CLR,,0.00,WeatherDisplay:10.37,2013-03-04 03:52:00,
2013-03-03 21:53:00,38.9,28.1,29.78,SE,128,4.6,4.6,65,0.00,CLR,,0.00,WeatherDisplay:10.37,2013-03-04 03:53:00,
2013-03-03 21:57:00,38.9,28.1,29.78,East,86,5.8,5.8,65,0.00,CLR,,0.00,WeatherDisplay:10.37,2013-03-04 03:57:00,
2013-03-03 21:58:00,38.9,28.1,29.78,ENE,71,5.8,5.8,65,0.00,CLR,,0.00,WeatherDisplay:10.37,2013-03-04 03:58:00,
2013-03-03 21:59:00,39.0,28.2,29.78,East,94,2.3,2.3,65,0.00,CLR,,0.00,WeatherDisplay:10.37,2013-03-04 03:59:00,
2013-03-03 22:02:00,39.0,27.8,29.78,ESE,107,2.3,2.3,64,0.00,CLR,,0.00,WeatherDisplay:10.37,2013-03-04 04:02:00,
2013-03-03 22:03:00,39.0,27.8,29.78,NE,34,2.3,2.3,64,0.00,CLR,,0.00,WeatherDisplay:10.37,2013-03-04 04:03:00,
2013-03-03 22:04:00,39.0,28.2,29.78,ESE,109,3.5,3.5,65,0.00,CLR,,0.00,WeatherDisplay:10.37,2013-03-04 04:04:00,
2013-03-03 22:07:00,39.1,27.9,29.77,North,9,3.5,3.5,64,0.00,CLR,,0.00,WeatherDisplay:10.37,2013-03-04 04:07:00,
2013-03-03 22:08:00,39.1,28.3,29.77,SE,140,3.5,3.5,65,0.00,CLR,,0.00,WeatherDisplay:10.37,2013-03-04 04:08:00,
2013-03-03 22:09:00,39.1,28.3,29.78,SE,129,2.0,2.0,65,0.00,CLR,,0.00,WeatherDisplay:10.37,2013-03-04 04:09:00,
2013-03-03 22:13:00,39.1,28.3,29.78,ESE,119,3.5,3.5,65,0.00,CLR,,0.00,WeatherDisplay:10.37,2013-03-04 04:13:00,
2013-03-03 22:14:00,39.1,27.9,29.78,ESE,116,2.3,2.3,64,0.00,CLR,,0.00,WeatherDisplay:10.37,2013-03-04 04:14:00,
2013-03-03 22:18:00,39.1,27.9,29.78,ESE,106,1.2,1.2,64,0.00,CLR,,0.00,WeatherDisplay:10.37,2013-03-04 04:18:00,
2013-03-03 22:19:00,39.1,27.9,29.78,NE,39,3.5,3.5,64,0.00,CLR,,0.00,WeatherDisplay:10.37,2013-03-04 04:19:00,
2013-03-03 22:23:00,39.1,27.9,29.77,NE,49,3.5,3.5,64,0.00,CLR,,0.00,WeatherDisplay:10.37,2013-03-04 04:23:00,
2013-03-03 22:24:00,39.1,27.9,29.77,ENE,69,2.3,2.3,64,0.00,CLR,,0.00,WeatherDisplay:10.37,2013-03-04 04:24:00,
2013-03-03 22:28:00,39.0,27.8,29.77,SE,128,3.5,3.5,64,0.00,CLR,,0.00,WeatherDisplay:10.37,2013-03-04 04:28:00,
2013-03-03 22:29:00,39.0,28.2,29.77,ESE,107,1.2,1.2,65,0.00,CLR,,0.00,WeatherDisplay:10.37,2013-03-04 04:29:00,
2013-03-03 22:33:00,39.0,28.2,29.77,SSE,148,3.5,3.5,65,0.00,CLR,,0.00,WeatherDisplay:10.37,2013-03-04 04:33:00,
2013-03-03 22:34:00,39.0,28.2,29.77,ESE,118,3.5,3.5,65,0.00,CLR,,0.00,WeatherDisplay:10.37,2013-03-04 04:34:00,
2013-03-03 22:38:00,38.9,28.1,29.77,SSE,158,5.8,5.8,65,0.00,CLR,,0.00,WeatherDisplay:10.37,2013-03-04 04:38:00,
2013-03-03 22:39:00,38.9,28.1,29.77,SE,142,5.8,5.8,65,0.00,CLR,,0.00,WeatherDisplay:10.37,2013-03-04 04:39:00,
2013-03-03 22:40:00,38.9,28.1,29.77,East,96,2.3,2.3,65,0.00,CLR,,0.00,WeatherDisplay:10.37,2013-03-04 04:40:00,
2013-03-03 22:43:00,38.9,28.1,29.77,ESE,104,2.3,2.3,65,0.00,CLR,,0.00,WeatherDisplay:10.37,2013-03-04 04:43:00,
2013-03-03 22:44:00,38.9,28.1,29.77,ESE,117,4.0,4.0,65,0.00,CLR,,0.00,WeatherDisplay:10.37,2013-03-04 04:44:00,
2013-03-03 22:45:00,38.9,28.1,29.77,East,98,4.6,4.6,65,0.00,CLR,,0.00,WeatherDisplay:10.37,2013-03-04 04:45:00,
2013-03-03 22:49:00,38.9,28.1,29.76,East,96,3.5,3.5,65,0.00,CLR,,0.00,WeatherDisplay:10.37,2013-03-04 04:49:00,
2013-03-03 22:50:00,38.9,28.5,29.77,SSE,162,3.5,3.5,66,0.00,CLR,,0.00,WeatherDisplay:10.37,2013-03-04 04:50:00,
2013-03-03 22:54:00,38.8,28.4,29.77,ESE,109,3.5,3.5,66,0.00,CLR,,0.00,WeatherDisplay:10.37,2013-03-04 04:54:00,
2013-03-03 22:55:00,38.8,28.4,29.77,NE,38,2.3,2.3,66,0.00,CLR,,0.00,WeatherDisplay:10.37,2013-03-04 04:55:00,
2013-03-03 22:59:00,38.9,28.5,29.77,ESE,107,1.2,1.2,66,0.00,CLR,,0.00,WeatherDisplay:10.37,2013-03-04 04:59:00,
2013-03-03 23:00:00,38.9,28.5,29.77,SE,138,3.5,3.5,66,0.00,CLR,,0.00,WeatherDisplay:10.37,2013-03-04 05:00:00,
2013-03-03 23:05:00,39.0,28.2,29.77,ENE,76,2.3,2.3,65,0.00,CLR,,0.00,WeatherDisplay:10.37,2013-03-04 05:05:00,
2013-03-03 23:10:00,39.1,28.3,29.76,South,169,5.0,5.0,65,0.00,CLR,,0.00,WeatherDisplay:10.37,2013-03-04 05:10:00,
2013-03-03 23:15:00,39.2,28.4,29.76,East,101,3.5,3.5,65,0.00,CLR,,0.00,WeatherDisplay:10.37,2013-03-04 05:15:00,
2013-03-03 23:20:00,39.3,28.1,29.76,ESE,105,2.3,2.3,64,0.00,CLR,,0.00,WeatherDisplay:10.37,2013-03-04 05:20:00,
2013-03-03 23:25:00,39.3,28.5,29.76,ENE,75,2.3,2.3,65,0.00,CLR,,0.00,WeatherDisplay:10.37,2013-03-04 05:25:00,
2013-03-03 23:30:00,39.3,28.5,29.75,SE,146,3.5,3.5,65,0.00,CLR,,0.00,WeatherDisplay:10.37,2013-03-04 05:30:00,
2013-03-03 23:31:00,39.3,28.5,29.75,SE,144,3.5,3.5,65,0.00,CLR,,0.00,WeatherDisplay:10.37,2013-03-04 05:31:00,
2013-03-03 23:35:00,39.3,28.5,29.75,ESE,120,2.3,2.3,65,0.00,CLR,,0.00,WeatherDisplay:10.37,2013-03-04 05:35:00,
2013-03-03 23:36:00,39.4,28.6,29.75,East,96,2.3,2.3,65,0.00,CLR,,0.00,WeatherDisplay:10.37,2013-03-04 05:36:00,
2013-03-03 23:40:00,39.4,28.6,29.75,ESE,103,3.5,3.5,65,0.00,CLR,,0.00,WeatherDisplay:10.37,2013-03-04 05:40:00,
2013-03-03 23:41:00,39.5,28.3,29.75,SE,144,3.5,3.5,64,0.00,CLR,,0.00,WeatherDisplay:10.37,2013-03-04 05:41:00,
2013-03-03 23:45:00,39.5,28.3,29.75,East,101,3.5,3.5,64,0.00,CLR,,0.00,WeatherDisplay:10.37,2013-03-04 05:45:00,
2013-03-03 23:46:00,39.5,28.3,29.75,East,91,3.5,3.5,64,0.00,CLR,,0.00,WeatherDisplay:10.37,2013-03-04 05:46:00,
2013-03-03 23:50:00,39.6,28.4,29.74,SSE,153,2.3,2.3,64,0.00,CLR,,0.00,WeatherDisplay:10.37,2013-03-04 05:50:00,
2013-03-03 23:51:00,39.7,28.5,29.74,East,86,3.0,3.0,64,0.00,CLR,,0.00,WeatherDisplay:10.37,2013-03-04 05:51:00,
2013-03-03 23:55:00,39.6,28.8,29.74,ESE,118,2.3,2.3,65,0.00,CLR,,0.00,WeatherDisplay:10.37,2013-03-04 05:55:00,
2013-03-03 23:56:00,39.6,28.8,29.74,ESE,118,2.3,2.3,65,0.00,CLR,,0.00,WeatherDisplay:10.37,2013-03-04 05:56:00,
2013-03-03 23:57:00,39.6,28.8,29.74,ESE,118,2.3,0.0,65,0.00,CLR,,0.00,WeatherDisplay:10.37,2013-03-04 05:57:00,